Time,TemperatureF,DewpointF,PressureIn,WindDirection,WindDirectionDegrees,WindSpeedMPH,WindSpeedGustMPH,Humidity,HourlyPrecipIn,Conditions,Clouds,dailyrainin,SoftwareType,DateUTC
2013-02-14 00:01:00,46.7,30.9,30.04,NE,48,2.0,2.0,54,0.00,,,0.00,Wunderground v.1.15,2013-02-14 06:01:00,
2013-02-14 00:02:00,46.7,30.9,30.04,NE,48,2.0,2.0,54,0.00,,,0.00,Wunderground v.1.15,2013-02-14 06:02:00,
2013-02-14 00:03:00,46.7,30.9,30.04,NE,48,2.0,2.0,54,0.00,,,0.00,Wunderground v.1.15,2013-02-14 06:03:00,
2013-02-14 00:08:00,46.5,31.2,30.04,NE,48,2.0,2.0,55,0.00,,,0.00,Wunderground v.1.15,2013-02-14 06:08:00,
2013-02-14 00:09:00,46.5,31.2,30.04,NE,48,2.0,2.0,55,0.00,,,0.00,Wunderground v.1.15,2013-02-14 06:09:00,
2013-02-14 00:11:00,46.5,31.2,30.04,NE,48,2.0,2.0,55,0.00,,,0.00,Wunderground v.1.15,2013-02-14 06:11:00,
2013-02-14 00:13:00,46.4,31.1,30.04,NE,48,2.0,2.0,55,0.00,,,0.00,Wunderground v.1.15,2013-02-14 06:13:00,
2013-02-14 00:14:00,46.4,31.1,30.04,NE,48,2.0,2.0,55,0.00,,,0.00,Wunderground v.1.15,2013-02-14 06:14:00,
2013-02-14 00:17:00,46.4,31.1,30.03,NE,48,2.0,2.0,55,0.00,,,0.00,Wunderground v.1.15,2013-02-14 06:17:00,
2013-02-14 00:18:00,46.4,31.1,30.03,NE,48,2.0,2.0,55,0.00,,,0.00,Wunderground v.1.15,2013-02-14 06:18:00,
2013-02-14 00:20:00,46.2,31.4,30.03,NE,48,2.0,2.0,56,0.00,,,0.00,Wunderground v.1.15,2013-02-14 06:20:00,
2013-02-14 00:22:00,46.2,31.4,30.03,NE,48,2.0,2.0,56,0.00,,,0.00,Wunderground v.1.15,2013-02-14 06:22:00,
2013-02-14 00:23:00,46.2,31.4,30.03,NE,48,2.0,2.0,56,0.00,,,0.00,Wunderground v.1.15,2013-02-14 06:23:00,
2013-02-14 00:25:00,46.2,31.4,30.03,NE,48,2.0,2.0,56,0.00,,,0.00,Wunderground v.1.15,2013-02-14 06:25:00,
2013-02-14 00:28:00,46.2,31.4,30.03,NE,48,2.0,2.0,56,0.00,,,0.00,Wunderground v.1.15,2013-02-14 06:28:00,
2013-02-14 00:30:00,46.2,31.4,30.03,NE,48,2.0,2.0,56,0.00,,,0.00,Wunderground v.1.15,2013-02-14 06:30:00,
2013-02-14 00:31:00,46.2,31.4,30.03,NE,48,2.0,2.0,56,0.00,,,0.00,Wunderground v.1.15,2013-02-14 06:31:00,
2013-02-14 00:34:00,46.1,31.7,30.03,NE,48,2.0,2.0,57,0.00,,,0.00,Wunderground v.1.15,2013-02-14 06:34:00,
2013-02-14 00:36:00,46.1,31.7,30.03,NE,48,2.0,2.0,57,0.00,,,0.00,Wunderground v.1.15,2013-02-14 06:36:00,
2013-02-14 00:38:00,46.1,31.7,30.03,NE,48,2.0,2.0,57,0.00,,,0.00,Wunderground v.1.15,2013-02-14 06:38:00,
2013-02-14 00:39:00,46.1,31.7,30.03,NE,48,2.0,2.0,57,0.00,,,0.00,Wunderground v.1.15,2013-02-14 06:39:00,
2013-02-14 00:42:00,46.1,32.1,30.03,NE,48,2.0,2.0,58,0.00,,,0.00,Wunderground v.1.15,2013-02-14 06:42:00,
2013-02-14 00:44:00,46.1,32.1,30.03,NE,48,1.0,2.0,58,0.00,,,0.00,Wunderground v.1.15,2013-02-14 06:44:00,
2013-02-14 00:45:00,46.1,32.1,30.03,NE,48,1.0,2.0,58,0.00,,,0.00,Wunderground v.1.15,2013-02-14 06:45:00,
2013-02-14 00:46:00,46.1,32.1,30.03,NE,48,1.0,2.0,58,0.00,,,0.00,Wunderground v.1.15,2013-02-14 06:46:00,
2013-02-14 00:47:00,46.1,32.1,30.03,NE,48,1.0,2.0,58,0.00,,,0.00,Wunderground v.1.15,2013-02-14 06:47:00,
2013-02-14 00:52:00,46.1,32.1,30.03,NE,48,1.0,1.0,58,0.00,,,0.00,Wunderground v.1.15,2013-02-14 06:52:00,
2013-02-14 00:53:00,46.1,32.1,30.03,NE,48,1.0,1.0,58,0.00,,,0.00,Wunderground v.1.15,2013-02-14 06:53:00,
2013-02-14 00:54:00,46.1,32.1,30.03,NE,48,1.0,1.0,58,0.00,,,0.00,Wunderground v.1.15,2013-02-14 06:54:00,
2013-02-14 00:58:00,46.0,32.5,30.03,NE,48,1.0,1.0,59,0.00,,,0.00,Wunderground v.1.15,2013-02-14 06:58:00,
2013-02-14 01:01:00,45.8,32.3,30.03,NE,48,0.0,1.0,59,0.00,,,0.00,Wunderground v.1.15,2013-02-14 07:01:00,
2013-02-14 01:04:00,45.7,32.6,30.03,NE,48,0.0,1.0,60,0.00,,,0.00,Wunderground v.1.15,2013-02-14 07:04:00,
2013-02-14 01:06:00,45.7,32.6,30.03,NE,48,0.0,1.0,60,0.00,,,0.00,Wunderground v.1.15,2013-02-14 07:06:00,
2013-02-14 01:07:00,45.7,32.6,30.03,NE,48,0.0,1.0,60,0.00,,,0.00,Wunderground v.1.15,2013-02-14 07:07:00,
2013-02-14 01:11:00,45.5,32.4,30.03,NE,48,0.0,0.0,60,0.00,,,0.00,Wunderground v.1.15,2013-02-14 07:11:00,
2013-02-14 01:13:00,45.5,32.4,30.03,NE,48,0.0,0.0,60,0.00,,,0.00,Wunderground v.1.15,2013-02-14 07:13:00,
2013-02-14 01:18:00,45.4,32.7,30.03,NE,48,0.0,0.0,61,0.00,,,0.00,Wunderground v.1.15,2013-02-14 07:18:00,
2013-02-14 01:20:00,45.4,32.7,30.03,NE,48,0.0,0.0,61,0.00,,,0.00,Wunderground v.1.15,2013-02-14 07:20:00,
2013-02-14 01:25:00,45.5,33.2,30.03,NE,48,0.0,0.0,62,0.00,,,0.00,Wunderground v.1.15,2013-02-14 07:25:00,
2013-02-14 01:26:00,45.5,33.2,30.03,NE,48,0.0,0.0,62,0.00,,,0.00,Wunderground v.1.15,2013-02-14 07:26:00,
2013-02-14 01:30:00,45.5,33.2,30.03,NE,48,0.0,0.0,62,0.00,,,0.00,Wunderground v.1.15,2013-02-14 07:30:00,
2013-02-14 01:31:00,45.4,33.1,30.03,NE,48,0.0,0.0,62,0.00,,,0.00,Wunderground v.1.15,2013-02-14 07:31:00,
2013-02-14 01:34:00,45.4,33.1,30.03,NE,48,0.0,0.0,62,0.00,,,0.00,Wunderground v.1.15,2013-02-14 07:34:00,
2013-02-14 01:35:00,45.4,33.1,30.03,NE,48,0.0,0.0,62,0.00,,,0.00,Wunderground v.1.15,2013-02-14 07:35:00,
2013-02-14 01:38:00,45.4,33.1,30.03,NE,48,0.0,0.0,62,0.00,,,0.00,Wunderground v.1.15,2013-02-14 07:38:00,
2013-02-14 01:40:00,45.5,33.6,30.03,NE,48,0.0,1.0,63,0.00,,,0.00,Wunderground v.1.15,2013-02-14 07:40:00,
2013-02-14 01:43:00,45.5,33.6,30.03,NE,48,0.0,1.0,63,0.00,,,0.00,Wunderground v.1.15,2013-02-14 07:43:00,
2013-02-14 01:47:00,45.7,33.8,30.03,NE,48,0.0,1.0,63,0.00,,,0.00,Wunderground v.1.15,2013-02-14 07:47:00,
2013-02-14 01:48:00,45.7,33.8,30.03,NE,48,0.0,1.0,63,0.00,,,0.00,Wunderground v.1.15,2013-02-14 07:48:00,
2013-02-14 01:50:00,45.7,33.8,30.03,NE,48,0.0,1.0,63,0.00,,,0.00,Wunderground v.1.15,2013-02-14 07:50:00,
2013-02-14 01:51:00,45.8,33.9,30.03,NE,48,0.0,1.0,63,0.00,,,0.00,Wunderground v.1.15,2013-02-14 07:51:00,
2013-02-14 01:53:00,45.8,33.9,30.03,NE,48,0.0,1.0,63,0.00,,,0.00,Wunderground v.1.15,2013-02-14 07:53:00,
2013-02-14 01:55:00,45.8,33.9,30.03,NE,48,0.0,1.0,63,0.00,,,0.00,Wunderground v.1.15,2013-02-14 07:55:00,
2013-02-14 01:56:00,45.7,33.8,30.03,NE,48,0.0,1.0,63,0.00,,,0.00,Wunderground v.1.15,2013-02-14 07:56:00,
2013-02-14 02:00:00,45.7,33.8,30.03,NE,48,0.0,0.0,63,0.00,,,0.00,Wunderground v.1.15,2013-02-14 08:00:00,
2013-02-14 02:01:00,45.7,33.8,30.03,NE,48,0.0,0.0,63,0.00,,,0.00,Wunderground v.1.15,2013-02-14 08:01:00,
2013-02-14 02:03:00,45.5,34.0,30.03,NE,48,0.0,0.0,64,0.00,,,0.00,Wunderground v.1.15,2013-02-14 08:03:00,
2013-02-14 02:04:00,45.5,34.0,30.03,NE,48,0.0,0.0,64,0.00,,,0.00,Wunderground v.1.15,2013-02-14 08:04:00,
2013-02-14 02:08:00,45.4,33.9,30.03,NE,48,0.0,0.0,64,0.00,,,0.00,Wunderground v.1.15,2013-02-14 08:08:00,
2013-02-14 02:10:00,45.2,33.7,30.03,NE,48,0.0,0.0,64,0.00,,,0.00,Wunderground v.1.15,2013-02-14 08:10:00,
2013-02-14 02:14:00,45.1,34.0,30.03,NE,48,0.0,0.0,65,0.00,,,0.00,Wunderground v.1.15,2013-02-14 08:14:00,
2013-02-14 02:15:00,44.9,33.8,30.03,NE,48,0.0,0.0,65,0.00,,,0.00,Wunderground v.1.15,2013-02-14 08:15:00,
2013-02-14 02:17:00,44.9,33.8,30.03,NE,48,0.0,0.0,65,0.00,,,0.00,Wunderground v.1.15,2013-02-14 08:17:00,
2013-02-14 02:20:00,44.8,33.7,30.03,NE,48,0.0,0.0,65,0.00,,,0.00,Wunderground v.1.15,2013-02-14 08:20:00,
2013-02-14 02:23:00,44.5,33.8,30.03,NE,48,0.0,0.0,66,0.00,,,0.00,Wunderground v.1.15,2013-02-14 08:23:00,
2013-02-14 02:24:00,44.5,33.8,30.03,NE,48,0.0,0.0,66,0.00,,,0.00,Wunderground v.1.15,2013-02-14 08:24:00,
2013-02-14 02:26:00,44.3,33.7,30.03,NE,48,0.0,0.0,66,0.00,,,0.00,Wunderground v.1.15,2013-02-14 08:26:00,
2013-02-14 02:28:00,44.2,33.9,30.03,NE,48,0.0,0.0,67,0.00,,,0.00,Wunderground v.1.15,2013-02-14 08:28:00,
2013-02-14 02:30:00,44.1,33.8,30.03,NE,48,0.0,0.0,67,0.00,,,0.00,Wunderground v.1.15,2013-02-14 08:30:00,
2013-02-14 02:35:00,43.8,33.9,30.03,NE,48,0.0,0.0,68,0.00,,,0.00,Wunderground v.1.15,2013-02-14 08:35:00,
2013-02-14 02:36:00,43.8,33.9,30.03,NE,48,0.0,0.0,68,0.00,,,0.00,Wunderground v.1.15,2013-02-14 08:36:00,
2013-02-14 02:37:00,43.8,33.9,30.03,NE,48,0.0,0.0,68,0.00,,,0.00,Wunderground v.1.15,2013-02-14 08:37:00,
2013-02-14 02:40:00,43.6,33.7,30.03,NE,48,0.0,0.0,68,0.00,,,0.00,Wunderground v.1.15,2013-02-14 08:40:00,
2013-02-14 02:42:00,43.5,34.0,30.03,NE,48,0.0,0.0,69,0.00,,,0.00,Wunderground v.1.15,2013-02-14 08:42:00,
2013-02-14 02:44:00,43.5,34.0,30.03,NE,48,0.0,0.0,69,0.00,,,0.00,Wunderground v.1.15,2013-02-14 08:44:00,
2013-02-14 02:45:00,43.5,34.0,30.03,NE,48,0.0,0.0,69,0.00,,,0.00,Wunderground v.1.15,2013-02-14 08:45:00,
2013-02-14 02:50:00,43.3,33.8,30.03,NE,48,0.0,0.0,69,0.00,,,0.00,Wunderground v.1.15,2013-02-14 08:50:00,
2013-02-14 02:51:00,43.2,33.7,30.03,NE,48,0.0,0.0,69,0.00,,,0.00,Wunderground v.1.15,2013-02-14 08:51:00,
2013-02-14 02:55:00,43.2,33.7,30.03,NE,48,0.0,0.0,69,0.00,,,0.00,Wunderground v.1.15,2013-02-14 08:55:00,
2013-02-14 02:57:00,43.1,33.6,30.03,NE,48,0.0,0.0,69,0.00,,,0.00,Wunderground v.1.15,2013-02-14 08:57:00,
2013-02-14 02:58:00,43.1,34.0,30.03,NE,48,0.0,0.0,70,0.00,,,0.00,Wunderground v.1.15,2013-02-14 08:58:00,
2013-02-14 03:03:00,43.1,34.0,30.02,NE,48,0.0,0.0,70,0.00,,,0.00,Wunderground v.1.15,2013-02-14 09:03:00,
2013-02-14 03:04:00,43.1,34.0,30.02,NE,48,0.0,0.0,70,0.00,,,0.00,Wunderground v.1.15,2013-02-14 09:04:00,
2013-02-14 03:10:00,43.1,34.0,30.02,NE,48,0.0,0.0,70,0.00,,,0.00,Wunderground v.1.15,2013-02-14 09:10:00,
2013-02-14 03:11:00,42.9,33.8,30.02,NE,48,0.0,0.0,70,0.00,,,0.00,Wunderground v.1.15,2013-02-14 09:11:00,
2013-02-14 03:12:00,42.9,33.8,30.02,NE,48,0.0,0.0,70,0.00,,,0.00,Wunderground v.1.15,2013-02-14 09:12:00,
2013-02-14 03:14:00,42.9,33.8,30.02,NE,48,0.0,0.0,70,0.00,,,0.00,Wunderground v.1.15,2013-02-14 09:14:00,
2013-02-14 03:16:00,42.9,33.8,30.02,NE,48,0.0,0.0,70,0.00,,,0.00,Wunderground v.1.15,2013-02-14 09:16:00,
2013-02-14 03:18:00,42.8,34.0,30.02,NE,48,0.0,0.0,71,0.00,,,0.00,Wunderground v.1.15,2013-02-14 09:18:00,
2013-02-14 03:20:00,42.8,34.0,30.02,NE,48,0.0,0.0,71,0.00,,,0.00,Wunderground v.1.15,2013-02-14 09:20:00,
2013-02-14 03:22:00,42.8,34.0,30.02,NE,48,0.0,0.0,71,0.00,,,0.00,Wunderground v.1.15,2013-02-14 09:22:00,
2013-02-14 03:23:00,42.8,34.0,30.02,NE,48,0.0,0.0,71,0.00,,,0.00,Wunderground v.1.15,2013-02-14 09:23:00,
2013-02-14 03:26:00,42.8,34.0,30.02,NE,48,0.0,0.0,71,0.00,,,0.00,Wunderground v.1.15,2013-02-14 09:26:00,
2013-02-14 03:27:00,42.8,34.0,30.02,NE,48,0.0,0.0,71,0.00,,,0.00,Wunderground v.1.15,2013-02-14 09:27:00,
2013-02-14 03:30:00,42.8,34.0,30.02,NE,48,0.0,0.0,71,0.00,,,0.00,Wunderground v.1.15,2013-02-14 09:30:00,
2013-02-14 03:32:00,42.8,34.0,30.02,NE,48,0.0,0.0,71,0.00,,,0.00,Wunderground v.1.15,2013-02-14 09:32:00,
2013-02-14 03:36:00,42.8,34.0,30.02,NE,48,0.0,0.0,71,0.00,,,0.00,Wunderground v.1.15,2013-02-14 09:36:00,
2013-02-14 03:37:00,42.8,34.0,30.02,NE,48,0.0,0.0,71,0.00,,,0.00,Wunderground v.1.15,2013-02-14 09:37:00,
2013-02-14 03:42:00,42.8,34.4,30.02,NE,48,0.0,0.0,72,0.00,,,0.00,Wunderground v.1.15,2013-02-14 09:42:00,
2013-02-14 03:43:00,42.8,34.4,30.02,NE,48,0.0,0.0,72,0.00,,,0.00,Wunderground v.1.15,2013-02-14 09:43:00,
2013-02-14 03:44:00,42.8,34.4,30.02,NE,48,0.0,0.0,72,0.00,,,0.00,Wunderground v.1.15,2013-02-14 09:44:00,
2013-02-14 03:45:00,42.6,34.2,30.02,NE,48,0.0,0.0,72,0.00,,,0.00,Wunderground v.1.15,2013-02-14 09:45:00,
2013-02-14 03:48:00,42.6,34.2,30.02,NE,48,0.0,0.0,72,0.00,,,0.00,Wunderground v.1.15,2013-02-14 09:48:00,
2013-02-14 03:50:00,42.6,34.2,30.02,NE,48,0.0,0.0,72,0.00,,,0.00,Wunderground v.1.15,2013-02-14 09:50:00,
2013-02-14 03:52:00,42.6,34.2,30.02,NE,48,0.0,0.0,72,0.00,,,0.00,Wunderground v.1.15,2013-02-14 09:52:00,
2013-02-14 03:53:00,42.6,34.2,30.02,NE,48,0.0,0.0,72,0.00,,,0.00,Wunderground v.1.15,2013-02-14 09:53:00,
2013-02-14 03:57:00,42.6,34.2,30.02,NE,48,0.0,0.0,72,0.00,,,0.00,Wunderground v.1.15,2013-02-14 09:57:00,
2013-02-14 03:58:00,42.6,34.2,30.02,NE,48,0.0,0.0,72,0.00,,,0.00,Wunderground v.1.15,2013-02-14 09:58:00,
2013-02-14 04:00:00,42.6,34.2,30.02,NE,48,0.0,0.0,72,0.00,,,0.00,Wunderground v.1.15,2013-02-14 10:00:00,
2013-02-14 04:03:00,42.6,34.2,30.02,NE,48,0.0,0.0,72,0.00,,,0.00,Wunderground v.1.15,2013-02-14 10:03:00,
2013-02-14 04:04:00,42.6,34.2,30.02,NE,48,0.0,0.0,72,0.00,,,0.00,Wunderground v.1.15,2013-02-14 10:04:00,
2013-02-14 04:06:00,42.8,34.4,30.02,NE,48,0.0,0.0,72,0.00,,,0.00,Wunderground v.1.15,2013-02-14 10:06:00,
2013-02-14 04:08:00,42.8,34.4,30.02,NE,48,0.0,0.0,72,0.00,,,0.00,Wunderground v.1.15,2013-02-14 10:08:00,
2013-02-14 04:10:00,42.8,34.4,30.02,NE,48,0.0,0.0,72,0.00,,,0.00,Wunderground v.1.15,2013-02-14 10:10:00,
2013-02-14 04:11:00,42.8,34.4,30.02,NE,48,0.0,0.0,72,0.00,,,0.00,Wunderground v.1.15,2013-02-14 10:11:00,
2013-02-14 04:13:00,42.8,34.4,30.02,NE,48,0.0,0.0,72,0.00,,,0.00,Wunderground v.1.15,2013-02-14 10:13:00,
2013-02-14 04:16:00,42.8,34.0,30.02,NE,48,0.0,0.0,71,0.00,,,0.00,Wunderground v.1.15,2013-02-14 10:16:00,
2013-02-14 04:18:00,42.8,34.0,30.02,NE,48,0.0,0.0,71,0.00,,,0.00,Wunderground v.1.15,2013-02-14 10:18:00,
2013-02-14 04:20:00,42.8,34.0,30.02,NE,48,0.0,0.0,71,0.00,,,0.00,Wunderground v.1.15,2013-02-14 10:20:00,
2013-02-14 04:23:00,42.8,34.0,30.02,NE,48,0.0,0.0,71,0.00,,,0.00,Wunderground v.1.15,2013-02-14 10:23:00,
2013-02-14 04:24:00,42.8,34.0,30.02,NE,48,0.0,0.0,71,0.00,,,0.00,Wunderground v.1.15,2013-02-14 10:24:00,
2013-02-14 04:26:00,42.8,34.0,30.02,NE,48,0.0,0.0,71,0.00,,,0.00,Wunderground v.1.15,2013-02-14 10:26:00,
2013-02-14 04:28:00,42.8,34.4,30.02,NE,48,0.0,0.0,72,0.00,,,0.00,Wunderground v.1.15,2013-02-14 10:28:00,
2013-02-14 04:30:00,42.8,34.4,30.02,NE,48,0.0,0.0,72,0.00,,,0.00,Wunderground v.1.15,2013-02-14 10:30:00,
2013-02-14 04:31:00,42.8,34.4,30.02,NE,48,0.0,0.0,72,0.00,,,0.00,Wunderground v.1.15,2013-02-14 10:31:00,
2013-02-14 04:33:00,42.8,34.4,30.02,NE,48,0.0,0.0,72,0.00,,,0.00,Wunderground v.1.15,2013-02-14 10:33:00,
2013-02-14 04:34:00,42.8,34.4,30.02,NE,48,0.0,0.0,72,0.00,,,0.00,Wunderground v.1.15,2013-02-14 10:34:00,
2013-02-14 04:36:00,42.8,34.4,30.02,NE,48,0.0,0.0,72,0.00,,,0.00,Wunderground v.1.15,2013-02-14 10:36:00,
2013-02-14 04:38:00,42.8,34.4,30.02,NE,48,0.0,0.0,72,0.00,,,0.00,Wunderground v.1.15,2013-02-14 10:38:00,
2013-02-14 04:40:00,42.8,34.4,30.02,NE,48,0.0,0.0,72,0.00,,,0.00,Wunderground v.1.15,2013-02-14 10:40:00,
2013-02-14 04:45:00,42.9,34.5,30.02,NE,48,0.0,0.0,72,0.00,,,0.00,Wunderground v.1.15,2013-02-14 10:45:00,
2013-02-14 04:47:00,42.8,34.4,30.02,NE,48,0.0,0.0,72,0.00,,,0.00,Wunderground v.1.15,2013-02-14 10:47:00,
2013-02-14 04:48:00,42.8,34.4,30.02,NE,48,0.0,0.0,72,0.00,,,0.00,Wunderground v.1.15,2013-02-14 10:48:00,
2013-02-14 04:54:00,42.9,34.5,30.02,NE,48,0.0,0.0,72,0.00,,,0.00,Wunderground v.1.15,2013-02-14 10:54:00,
2013-02-14 04:55:00,42.9,34.5,30.02,NE,48,0.0,0.0,72,0.00,,,0.00,Wunderground v.1.15,2013-02-14 10:55:00,
2013-02-14 04:56:00,42.9,34.5,30.02,NE,48,0.0,0.0,72,0.00,,,0.00,Wunderground v.1.15,2013-02-14 10:56:00,
2013-02-14 05:00:00,43.2,34.4,30.02,NE,48,0.0,0.0,71,0.00,,,0.00,Wunderground v.1.15,2013-02-14 11:00:00,
2013-02-14 05:02:00,43.3,34.5,30.02,NE,48,0.0,0.0,71,0.00,,,0.00,Wunderground v.1.15,2013-02-14 11:02:00,
2013-02-14 05:03:00,43.3,34.5,30.02,NE,48,0.0,0.0,71,0.00,,,0.00,Wunderground v.1.15,2013-02-14 11:03:00,
2013-02-14 05:05:00,43.3,34.5,30.02,NE,48,0.0,0.0,71,0.00,,,0.00,Wunderground v.1.15,2013-02-14 11:05:00,
2013-02-14 05:06:00,43.3,34.9,30.02,NE,48,0.0,0.0,72,0.00,,,0.00,Wunderground v.1.15,2013-02-14 11:06:00,
2013-02-14 05:10:00,43.6,35.2,30.02,NE,48,0.0,0.0,72,0.00,,,0.00,Wunderground v.1.15,2013-02-14 11:10:00,
2013-02-14 05:15:00,43.5,34.7,30.02,NE,48,0.0,0.0,71,0.00,,,0.00,Wunderground v.1.15,2013-02-14 11:15:00,
2013-02-14 05:18:00,43.3,34.5,30.02,NE,48,0.0,0.0,71,0.00,,,0.00,Wunderground v.1.15,2013-02-14 11:18:00,
2013-02-14 05:20:00,43.2,34.4,30.02,NE,48,0.0,0.0,71,0.00,,,0.00,Wunderground v.1.15,2013-02-14 11:20:00,
2013-02-14 05:21:00,43.1,34.3,30.02,NE,48,0.0,0.0,71,0.00,,,0.00,Wunderground v.1.15,2013-02-14 11:21:00,
2013-02-14 05:25:00,42.8,34.0,30.02,NE,48,0.0,0.0,71,0.00,,,0.00,Wunderground v.1.15,2013-02-14 11:25:00,
2013-02-14 05:26:00,42.6,34.2,30.02,NE,48,0.0,0.0,72,0.00,,,0.00,Wunderground v.1.15,2013-02-14 11:26:00,
2013-02-14 05:27:00,42.6,34.2,30.02,NE,48,0.0,0.0,72,0.00,,,0.00,Wunderground v.1.15,2013-02-14 11:27:00,
2013-02-14 05:30:00,42.5,34.1,30.02,NE,48,0.0,0.0,72,0.00,,,0.00,Wunderground v.1.15,2013-02-14 11:30:00,
2013-02-14 05:32:00,42.3,33.9,30.02,NE,48,0.0,0.0,72,0.00,,,0.00,Wunderground v.1.15,2013-02-14 11:32:00,
2013-02-14 05:33:00,42.3,34.3,30.02,NE,48,0.0,0.0,73,0.00,,,0.00,Wunderground v.1.15,2013-02-14 11:33:00,
2013-02-14 05:35:00,42.3,34.3,30.02,NE,48,0.0,0.0,73,0.00,,,0.00,Wunderground v.1.15,2013-02-14 11:35:00,
2013-02-14 05:36:00,42.2,34.2,30.02,NE,48,0.0,0.0,73,0.00,,,0.00,Wunderground v.1.15,2013-02-14 11:36:00,
2013-02-14 05:37:00,42.2,34.2,30.02,NE,48,0.0,0.0,73,0.00,,,0.00,Wunderground v.1.15,2013-02-14 11:37:00,
2013-02-14 05:38:00,42.2,34.2,30.02,NE,48,0.0,0.0,73,0.00,,,0.00,Wunderground v.1.15,2013-02-14 11:38:00,
2013-02-14 05:42:00,42.2,34.5,30.02,NE,48,0.0,0.0,74,0.00,,,0.00,Wunderground v.1.15,2013-02-14 11:42:00,
2013-02-14 05:43:00,42.2,34.5,30.02,NE,48,0.0,0.0,74,0.00,,,0.00,Wunderground v.1.15,2013-02-14 11:43:00,
2013-02-14 05:44:00,42.2,34.5,30.02,NE,48,0.0,0.0,74,0.00,,,0.00,Wunderground v.1.15,2013-02-14 11:44:00,
2013-02-14 05:47:00,42.3,34.6,30.02,NE,48,0.0,0.0,74,0.00,,,0.00,Wunderground v.1.15,2013-02-14 11:47:00,
2013-02-14 05:48:00,42.3,34.6,30.02,NE,48,0.0,0.0,74,0.00,,,0.00,Wunderground v.1.15,2013-02-14 11:48:00,
2013-02-14 05:50:00,42.5,34.8,30.02,NE,48,0.0,0.0,74,0.00,,,0.00,Wunderground v.1.15,2013-02-14 11:50:00,
2013-02-14 05:53:00,42.6,34.5,30.02,NE,48,0.0,0.0,73,0.00,,,0.00,Wunderground v.1.15,2013-02-14 11:53:00,
2013-02-14 05:55:00,42.8,34.7,30.02,NE,48,0.0,0.0,73,0.00,,,0.00,Wunderground v.1.15,2013-02-14 11:55:00,
2013-02-14 05:56:00,42.8,34.7,30.02,NE,48,0.0,0.0,73,0.00,,,0.00,Wunderground v.1.15,2013-02-14 11:56:00,
2013-02-14 05:57:00,42.6,34.5,30.02,NE,48,0.0,0.0,73,0.00,,,0.00,Wunderground v.1.15,2013-02-14 11:57:00,
2013-02-14 06:01:00,42.6,34.5,30.03,NE,48,0.0,0.0,73,0.00,,,0.00,Wunderground v.1.15,2013-02-14 12:01:00,
2013-02-14 06:04:00,42.5,34.5,30.03,NE,48,0.0,0.0,73,0.00,,,0.00,Wunderground v.1.15,2013-02-14 12:04:00,
2013-02-14 06:05:00,42.3,34.3,30.03,NE,48,0.0,0.0,73,0.00,,,0.00,Wunderground v.1.15,2013-02-14 12:05:00,
2013-02-14 06:07:00,42.3,34.3,30.03,NE,48,0.0,0.0,73,0.00,,,0.00,Wunderground v.1.15,2013-02-14 12:07:00,
2013-02-14 06:11:00,42.2,34.2,30.03,NE,48,0.0,0.0,73,0.00,,,0.00,Wunderground v.1.15,2013-02-14 12:11:00,
2013-02-14 06:12:00,42.1,34.4,30.03,NE,48,0.0,0.0,74,0.00,,,0.00,Wunderground v.1.15,2013-02-14 12:12:00,
2013-02-14 06:15:00,41.9,34.2,30.03,NE,48,0.0,0.0,74,0.00,,,0.00,Wunderground v.1.15,2013-02-14 12:15:00,
2013-02-14 06:21:00,41.8,34.5,30.03,NE,48,0.0,0.0,75,0.00,,,0.00,Wunderground v.1.15,2013-02-14 12:21:00,
2013-02-14 06:22:00,41.8,34.5,30.03,NE,48,0.0,0.0,75,0.00,,,0.00,Wunderground v.1.15,2013-02-14 12:22:00,
2013-02-14 06:25:00,41.8,34.5,30.03,NE,48,0.0,0.0,75,0.00,,,0.00,Wunderground v.1.15,2013-02-14 12:25:00,
2013-02-14 06:26:00,41.8,34.5,30.03,NE,48,0.0,0.0,75,0.00,,,0.00,Wunderground v.1.15,2013-02-14 12:26:00,
2013-02-14 06:27:00,41.8,34.5,30.03,NE,48,0.0,0.0,75,0.00,,,0.00,Wunderground v.1.15,2013-02-14 12:27:00,
2013-02-14 06:28:00,41.8,34.5,30.03,NE,48,0.0,0.0,75,0.00,,,0.00,Wunderground v.1.15,2013-02-14 12:28:00,
2013-02-14 06:30:00,41.8,34.5,30.03,NE,48,0.0,0.0,75,0.00,,,0.00,Wunderground v.1.15,2013-02-14 12:30:00,
2013-02-14 06:34:00,41.9,34.6,30.03,NE,48,0.0,0.0,75,0.00,,,0.00,Wunderground v.1.15,2013-02-14 12:34:00,
2013-02-14 06:35:00,41.9,34.6,30.03,NE,48,0.0,0.0,75,0.00,,,0.00,Wunderground v.1.15,2013-02-14 12:35:00,
2013-02-14 06:38:00,41.8,34.5,30.03,NE,48,0.0,0.0,75,0.00,,,0.00,Wunderground v.1.15,2013-02-14 12:38:00,
2013-02-14 06:39:00,41.8,34.5,30.03,NE,48,0.0,0.0,75,0.00,,,0.00,Wunderground v.1.15,2013-02-14 12:39:00,
2013-02-14 06:43:00,41.6,34.3,30.03,NE,48,0.0,0.0,75,0.00,,,0.00,Wunderground v.1.15,2013-02-14 12:43:00,
2013-02-14 06:45:00,41.5,34.2,30.03,NE,48,0.0,0.0,75,0.00,,,0.00,Wunderground v.1.15,2013-02-14 12:45:00,
2013-02-14 06:47:00,41.5,34.2,30.04,NE,48,0.0,0.0,75,0.00,,,0.00,Wunderground v.1.15,2013-02-14 12:47:00,
2013-02-14 06:49:00,41.5,34.2,30.04,NE,48,0.0,0.0,75,0.00,,,0.00,Wunderground v.1.15,2013-02-14 12:49:00,
2013-02-14 06:50:00,41.3,34.0,30.04,NE,48,0.0,0.0,75,0.00,,,0.00,Wunderground v.1.15,2013-02-14 12:50:00,
2013-02-14 06:53:00,41.3,34.0,30.04,NE,48,0.0,0.0,75,0.00,,,0.00,Wunderground v.1.15,2013-02-14 12:53:00,
2013-02-14 06:55:00,41.3,34.0,30.04,NE,48,0.0,0.0,75,0.00,,,0.00,Wunderground v.1.15,2013-02-14 12:55:00,
2013-02-14 06:57:00,41.2,33.9,30.04,NE,48,0.0,0.0,75,0.00,,,0.00,Wunderground v.1.15,2013-02-14 12:57:00,
2013-02-14 06:58:00,41.2,34.2,30.04,NE,48,0.0,0.0,76,0.00,,,0.00,Wunderground v.1.15,2013-02-14 12:58:00,
2013-02-14 07:00:00,41.2,34.2,30.05,NE,48,0.0,0.0,76,0.00,,,0.00,Wunderground v.1.15,2013-02-14 13:00:00,
2013-02-14 07:01:00,41.2,34.2,30.05,NE,48,0.0,0.0,76,0.00,,,0.00,Wunderground v.1.15,2013-02-14 13:01:00,
2013-02-14 07:02:00,41.1,34.1,30.05,NE,48,0.0,0.0,76,0.00,,,0.00,Wunderground v.1.15,2013-02-14 13:02:00,
2013-02-14 07:06:00,40.9,33.9,30.05,NE,48,0.0,2.0,76,0.00,,,0.00,Wunderground v.1.15,2013-02-14 13:06:00,
2013-02-14 07:08:00,40.9,33.9,30.05,NE,48,1.0,2.0,76,0.00,,,0.00,Wunderground v.1.15,2013-02-14 13:08:00,
2013-02-14 07:09:00,40.9,33.9,30.05,NE,48,1.0,2.0,76,0.00,,,0.00,Wunderground v.1.15,2013-02-14 13:09:00,
2013-02-14 07:11:00,40.8,34.1,30.05,NE,48,1.0,1.0,77,0.00,,,0.00,Wunderground v.1.15,2013-02-14 13:11:00,
2013-02-14 07:13:00,40.8,34.1,30.05,NE,48,1.0,1.0,77,0.00,,,0.00,Wunderground v.1.15,2013-02-14 13:13:00,
2013-02-14 07:14:00,40.8,34.1,30.05,NE,48,1.0,1.0,77,0.00,,,0.00,Wunderground v.1.15,2013-02-14 13:14:00,
2013-02-14 07:17:00,40.8,34.1,30.05,NE,48,1.0,1.0,77,0.00,,,0.00,Wunderground v.1.15,2013-02-14 13:17:00,
2013-02-14 07:18:00,40.8,34.1,30.05,NE,48,1.0,1.0,77,0.00,,,0.00,Wunderground v.1.15,2013-02-14 13:18:00,
2013-02-14 07:19:00,40.8,34.1,30.05,NE,48,1.0,1.0,77,0.00,,,0.00,Wunderground v.1.15,2013-02-14 13:19:00,
2013-02-14 07:22:00,40.8,34.1,30.05,NE,48,1.0,2.0,77,0.00,,,0.00,Wunderground v.1.15,2013-02-14 13:22:00,
2013-02-14 07:23:00,40.8,34.1,30.05,NE,48,1.0,2.0,77,0.00,,,0.00,Wunderground v.1.15,2013-02-14 13:23:00,
2013-02-14 07:24:00,40.8,34.1,30.05,NE,48,1.0,2.0,77,0.00,,,0.00,Wunderground v.1.15,2013-02-14 13:24:00,
2013-02-14 07:28:00,40.9,34.6,30.05,NE,48,1.0,2.0,78,0.00,,,0.00,Wunderground v.1.15,2013-02-14 13:28:00,
2013-02-14 07:29:00,40.9,34.6,30.05,NE,48,1.0,2.0,78,0.00,,,0.00,Wunderground v.1.15,2013-02-14 13:29:00,
2013-02-14 07:30:00,40.9,34.6,30.05,NE,48,1.0,1.0,78,0.00,,,0.00,Wunderground v.1.15,2013-02-14 13:30:00,
2013-02-14 07:31:00,40.9,34.6,30.05,NE,48,1.0,1.0,78,0.00,,,0.00,Wunderground v.1.15,2013-02-14 13:31:00,
2013-02-14 07:34:00,41.1,34.8,30.05,NE,48,1.0,1.0,78,0.00,,,0.00,Wunderground v.1.15,2013-02-14 13:34:00,
2013-02-14 07:36:00,41.2,34.9,30.05,NE,48,0.0,1.0,78,0.00,,,0.00,Wunderground v.1.15,2013-02-14 13:36:00,
2013-02-14 07:40:00,41.3,35.0,30.05,NE,48,1.0,1.0,78,0.00,,,0.00,Wunderground v.1.15,2013-02-14 13:40:00,
2013-02-14 07:43:00,41.5,35.2,30.05,NE,48,1.0,1.0,78,0.00,,,0.00,Wunderground v.1.15,2013-02-14 13:43:00,
2013-02-14 07:44:00,41.6,35.2,30.05,NE,48,1.0,1.0,78,0.00,,,0.00,Wunderground v.1.15,2013-02-14 13:44:00,
2013-02-14 07:45:00,41.6,35.2,30.05,NE,48,1.0,1.0,78,0.00,,,0.00,Wunderground v.1.15,2013-02-14 13:45:00,
2013-02-14 07:50:00,42.2,35.5,30.05,NE,48,0.0,0.0,77,0.00,,,0.00,Wunderground v.1.15,2013-02-14 13:50:00,
2013-02-14 07:52:00,42.3,35.6,30.05,NE,48,0.0,0.0,77,0.00,,,0.00,Wunderground v.1.15,2013-02-14 13:52:00,
2013-02-14 07:55:00,42.8,35.8,30.05,NE,48,0.0,0.0,76,0.00,,,0.00,Wunderground v.1.15,2013-02-14 13:55:00,
2013-02-14 08:00:00,43.2,36.1,30.06,NE,48,0.0,0.0,76,0.00,,,0.00,Wunderground v.1.15,2013-02-14 14:00:00,
2013-02-14 08:01:00,43.3,36.2,30.06,NE,48,0.0,0.0,76,0.00,,,0.00,Wunderground v.1.15,2013-02-14 14:01:00,
2013-02-14 08:04:00,43.6,36.5,30.06,NE,48,0.0,0.0,76,0.00,,,0.00,Wunderground v.1.15,2013-02-14 14:04:00,
2013-02-14 08:05:00,43.8,36.4,30.06,NE,48,0.0,0.0,75,0.00,,,0.00,Wunderground v.1.15,2013-02-14 14:05:00,
2013-02-14 08:06:00,43.9,36.5,30.06,NE,48,0.0,0.0,75,0.00,,,0.00,Wunderground v.1.15,2013-02-14 14:06:00,
2013-02-14 08:09:00,44.3,36.9,30.06,NE,48,0.0,0.0,75,0.00,,,0.00,Wunderground v.1.15,2013-02-14 14:09:00,
2013-02-14 08:10:00,44.5,37.1,30.06,NE,48,0.0,0.0,75,0.00,,,0.00,Wunderground v.1.15,2013-02-14 14:10:00,
2013-02-14 08:11:00,44.8,37.4,30.06,NE,48,0.0,0.0,75,0.00,,,0.00,Wunderground v.1.15,2013-02-14 14:11:00,
2013-02-14 08:14:00,45.1,37.3,30.06,NE,48,0.0,0.0,74,0.00,,,0.00,Wunderground v.1.15,2013-02-14 14:14:00,
2013-02-14 08:16:00,45.5,37.7,30.06,NE,48,0.0,0.0,74,0.00,,,0.00,Wunderground v.1.15,2013-02-14 14:16:00,
2013-02-14 08:17:00,45.7,37.5,30.06,NE,48,0.0,0.0,73,0.00,,,0.00,Wunderground v.1.15,2013-02-14 14:17:00,
2013-02-14 08:20:00,46.1,37.6,30.06,NE,48,0.0,0.0,72,0.00,,,0.00,Wunderground v.1.15,2013-02-14 14:20:00,
2013-02-14 08:22:00,46.4,37.9,30.06,NE,48,0.0,0.0,72,0.00,,,0.00,Wunderground v.1.15,2013-02-14 14:22:00,
2013-02-14 08:26:00,47.0,38.1,30.06,NE,48,0.0,0.0,71,0.00,,,0.00,Wunderground v.1.15,2013-02-14 14:26:00,
2013-02-14 08:27:00,47.6,38.3,30.06,NE,48,0.0,0.0,70,0.00,,,0.00,Wunderground v.1.15,2013-02-14 14:27:00,
2013-02-14 08:28:00,47.7,38.4,30.06,NE,48,0.0,0.0,70,0.00,,,0.00,Wunderground v.1.15,2013-02-14 14:28:00,
2013-02-14 08:30:00,48.0,38.3,30.06,NE,48,0.0,0.0,69,0.00,,,0.00,Wunderground v.1.15,2013-02-14 14:30:00,
2013-02-14 08:32:00,48.5,38.4,30.06,NE,48,0.0,0.0,68,0.00,,,0.00,Wunderground v.1.15,2013-02-14 14:32:00,
2013-02-14 08:36:00,49.8,39.3,30.06,NE,48,0.0,0.0,67,0.00,,,0.00,Wunderground v.1.15,2013-02-14 14:36:00,
2013-02-14 08:37:00,50.2,39.3,30.06,NE,48,0.0,0.0,66,0.00,,,0.00,Wunderground v.1.15,2013-02-14 14:37:00,
2013-02-14 08:38:00,50.7,39.7,30.06,NE,48,0.0,0.0,66,0.00,,,0.00,Wunderground v.1.15,2013-02-14 14:38:00,
2013-02-14 08:40:00,51.0,40.0,30.06,NE,48,0.0,0.0,66,0.00,,,0.00,Wunderground v.1.15,2013-02-14 14:40:00,
2013-02-14 08:44:00,50.7,37.7,30.06,NE,48,0.0,2.0,61,0.00,,,0.00,Wunderground v.1.15,2013-02-14 14:44:00,
2013-02-14 08:46:00,50.7,37.7,30.06,NE,48,0.0,2.0,61,0.00,,,0.00,Wunderground v.1.15,2013-02-14 14:46:00,
2013-02-14 08:48:00,50.8,37.4,30.06,NE,48,1.0,3.0,60,0.00,,,0.00,Wunderground v.1.15,2013-02-14 14:48:00,
2013-02-14 08:50:00,50.8,37.4,30.06,NE,48,1.0,3.0,60,0.00,,,0.00,Wunderground v.1.15,2013-02-14 14:50:00,
2013-02-14 08:51:00,50.8,37.4,30.06,NE,48,1.0,1.0,60,0.00,,,0.00,Wunderground v.1.15,2013-02-14 14:51:00,
2013-02-14 08:55:00,50.5,37.1,30.06,WNW,302,1.0,3.0,60,0.00,,,0.00,Wunderground v.1.15,2013-02-14 14:55:00,
2013-02-14 08:56:00,50.5,37.1,30.06,West,280,1.0,3.0,60,0.00,,,0.00,Wunderground v.1.15,2013-02-14 14:56:00,
2013-02-14 08:57:00,50.5,37.1,30.06,WSW,239,2.0,5.0,60,0.00,,,0.00,Wunderground v.1.15,2013-02-14 14:57:00,
2013-02-14 09:01:00,50.5,37.5,30.07,SW,223,2.0,2.0,61,0.00,,,0.00,Wunderground v.1.15,2013-02-14 15:01:00,
2013-02-14 09:02:00,50.7,37.3,30.07,SW,232,3.0,3.0,60,0.00,,,0.00,Wunderground v.1.15,2013-02-14 15:02:00,
2013-02-14 09:03:00,50.7,37.3,30.07,SW,233,3.0,3.0,60,0.00,,,0.00,Wunderground v.1.15,2013-02-14 15:03:00,
2013-02-14 09:10:00,51.0,38.0,30.07,SW,219,3.0,3.0,61,0.00,,,0.00,Wunderground v.1.15,2013-02-14 15:10:00,
2013-02-14 09:13:00,51.0,37.6,30.07,SW,229,4.0,8.0,60,0.00,,,0.00,Wunderground v.1.15,2013-02-14 15:13:00,
2013-02-14 09:16:00,51.1,37.7,30.07,SW,229,4.0,8.0,60,0.00,,,0.00,Wunderground v.1.15,2013-02-14 15:16:00,
2013-02-14 09:17:00,51.1,37.7,30.07,SW,232,4.0,8.0,60,0.00,,,0.00,Wunderground v.1.15,2013-02-14 15:17:00,
2013-02-14 09:18:00,51.1,37.7,30.07,SW,227,4.0,8.0,60,0.00,,,0.00,Wunderground v.1.15,2013-02-14 15:18:00,
2013-02-14 09:23:00,51.3,37.4,30.07,SW,227,5.0,9.0,59,0.00,,,0.00,Wunderground v.1.15,2013-02-14 15:23:00,
2013-02-14 09:24:00,51.4,38.0,30.07,SW,229,5.0,9.0,60,0.00,,,0.00,Wunderground v.1.15,2013-02-14 15:24:00,
2013-02-14 09:25:00,51.4,38.0,30.07,SW,230,5.0,9.0,60,0.00,,,0.00,Wunderground v.1.15,2013-02-14 15:25:00,
2013-02-14 09:28:00,51.4,37.5,30.07,West,268,5.0,9.0,59,0.00,,,0.00,Wunderground v.1.15,2013-02-14 15:28:00,
2013-02-14 09:30:00,51.4,37.5,30.07,WSW,253,5.0,6.0,59,0.00,,,0.00,Wunderground v.1.15,2013-02-14 15:30:00,
2013-02-14 09:31:00,51.4,37.5,30.07,SW,233,5.0,6.0,59,0.00,,,0.00,Wunderground v.1.15,2013-02-14 15:31:00,
2013-02-14 09:34:00,51.7,37.8,30.07,WSW,251,5.0,7.0,59,0.00,,,0.00,Wunderground v.1.15,2013-02-14 15:34:00,
2013-02-14 09:35:00,51.9,38.0,30.07,WSW,253,5.0,7.0,59,0.00,,,0.00,Wunderground v.1.15,2013-02-14 15:35:00,
2013-02-14 09:36:00,52.0,38.1,30.07,WSW,253,5.0,7.0,59,0.00,,,0.00,Wunderground v.1.15,2013-02-14 15:36:00,
2013-02-14 09:41:00,52.5,37.7,30.07,SW,223,4.0,7.0,57,0.00,,,0.00,Wunderground v.1.15,2013-02-14 15:41:00,
2013-02-14 09:42:00,52.6,37.8,30.07,SW,233,4.0,7.0,57,0.00,,,0.00,Wunderground v.1.15,2013-02-14 15:42:00,
2013-02-14 09:44:00,52.8,38.0,30.07,SSW,212,4.0,7.0,57,0.00,,,0.00,Wunderground v.1.15,2013-02-14 15:44:00,
2013-02-14 09:46:00,52.9,38.1,30.07,SW,224,4.0,7.0,57,0.00,,,0.00,Wunderground v.1.15,2013-02-14 15:46:00,
2013-02-14 09:47:00,53.1,38.3,30.07,SSW,203,4.0,7.0,57,0.00,,,0.00,Wunderground v.1.15,2013-02-14 15:47:00,
2013-02-14 09:50:00,53.3,38.0,30.07,SW,234,4.0,4.0,56,0.00,,,0.00,Wunderground v.1.15,2013-02-14 15:50:00,
2013-02-14 09:51:00,53.3,38.0,30.07,WSW,240,4.0,6.0,56,0.00,,,0.00,Wunderground v.1.15,2013-02-14 15:51:00,
2013-02-14 09:53:00,53.6,38.3,30.07,SW,215,4.0,6.0,56,0.00,,,0.00,Wunderground v.1.15,2013-02-14 15:53:00,
2013-02-14 09:55:00,53.6,37.8,30.07,SW,220,5.0,6.0,55,0.00,,,0.00,Wunderground v.1.15,2013-02-14 15:55:00,
2013-02-14 09:56:00,53.6,37.3,30.07,SSW,213,5.0,7.0,54,0.00,,,0.00,Wunderground v.1.15,2013-02-14 15:56:00,
2013-02-14 10:00:00,53.8,38.0,30.07,SW,227,5.0,5.0,55,0.00,,,0.00,Wunderground v.1.15,2013-02-14 16:00:00,
2013-02-14 10:02:00,54.1,37.8,30.07,SW,216,5.0,5.0,54,0.00,,,0.00,Wunderground v.1.15,2013-02-14 16:02:00,
2013-02-14 10:06:00,54.2,37.9,30.07,SSW,212,5.0,5.0,54,0.00,,,0.00,Wunderground v.1.15,2013-02-14 16:06:00,
2013-02-14 10:08:00,54.4,37.6,30.07,SW,227,4.0,8.0,53,0.00,,,0.00,Wunderground v.1.15,2013-02-14 16:08:00,
2013-02-14 10:09:00,54.4,37.6,30.07,SW,229,5.0,9.0,53,0.00,,,0.00,Wunderground v.1.15,2013-02-14 16:09:00,
2013-02-14 10:12:00,54.4,37.6,30.07,WSW,241,6.0,6.0,53,0.00,,,0.00,Wunderground v.1.15,2013-02-14 16:12:00,
2013-02-14 10:15:00,54.5,37.2,30.07,SSW,206,6.0,9.0,52,0.00,,,0.00,Wunderground v.1.15,2013-02-14 16:15:00,
2013-02-14 10:17:00,54.8,37.5,30.07,SW,227,6.0,9.0,52,0.00,,,0.00,Wunderground v.1.15,2013-02-14 16:17:00,
2013-02-14 10:19:00,55.3,38.0,30.07,SSW,195,6.0,9.0,52,0.00,,,0.00,Wunderground v.1.15,2013-02-14 16:19:00,
2013-02-14 10:21:00,55.4,38.1,30.07,SW,222,5.0,11.0,52,0.00,,,0.00,Wunderground v.1.15,2013-02-14 16:21:00,
2013-02-14 10:22:00,55.4,37.6,30.07,WSW,239,6.0,11.0,51,0.00,,,0.00,Wunderground v.1.15,2013-02-14 16:22:00,
2013-02-14 10:24:00,55.3,37.5,30.07,SW,224,6.0,11.0,51,0.00,,,0.00,Wunderground v.1.15,2013-02-14 16:24:00,
2013-02-14 10:25:00,55.3,38.0,30.07,West,263,5.0,11.0,52,0.00,,,0.00,Wunderground v.1.15,2013-02-14 16:25:00,
2013-02-14 10:28:00,55.4,38.1,30.07,SW,223,5.0,11.0,52,0.00,,,0.00,Wunderground v.1.15,2013-02-14 16:28:00,
2013-02-14 10:29:00,55.6,37.2,30.07,SW,219,5.0,11.0,50,0.00,,,0.00,Wunderground v.1.15,2013-02-14 16:29:00,
2013-02-14 10:31:00,55.6,37.2,30.07,SW,232,6.0,7.0,50,0.00,,,0.00,Wunderground v.1.15,2013-02-14 16:31:00,
2013-02-14 10:34:00,55.9,37.0,30.07,West,261,5.0,7.0,49,0.00,,,0.00,Wunderground v.1.15,2013-02-14 16:34:00,
2013-02-14 10:35:00,56.0,37.6,30.07,West,263,6.0,7.0,50,0.00,,,0.00,Wunderground v.1.15,2013-02-14 16:35:00,
2013-02-14 10:36:00,56.0,38.1,30.07,SW,215,5.0,7.0,51,0.00,,,0.00,Wunderground v.1.15,2013-02-14 16:36:00,
2013-02-14 10:37:00,56.0,37.6,30.07,WSW,250,6.0,7.0,50,0.00,,,0.00,Wunderground v.1.15,2013-02-14 16:37:00,
2013-02-14 10:42:00,56.5,37.6,30.07,WSW,244,5.0,6.0,49,0.00,,,0.00,Wunderground v.1.15,2013-02-14 16:42:00,
2013-02-14 10:43:00,56.5,37.0,30.07,SW,232,6.0,10.0,48,0.00,,,0.00,Wunderground v.1.15,2013-02-14 16:43:00,
2013-02-14 10:45:00,56.7,37.2,30.07,SW,223,6.0,10.0,48,0.00,,,0.00,Wunderground v.1.15,2013-02-14 16:45:00,
2013-02-14 10:47:00,56.9,37.4,30.07,SW,215,6.0,11.0,48,0.00,,,0.00,Wunderground v.1.15,2013-02-14 16:47:00,
2013-02-14 10:49:00,57.0,37.5,30.07,SW,236,6.0,11.0,48,0.00,,,0.00,Wunderground v.1.15,2013-02-14 16:49:00,
2013-02-14 10:51:00,57.0,37.5,30.07,WSW,239,7.0,10.0,48,0.00,,,0.00,Wunderground v.1.15,2013-02-14 16:51:00,
2013-02-14 10:52:00,57.0,37.5,30.07,SW,234,7.0,10.0,48,0.00,,,0.00,Wunderground v.1.15,2013-02-14 16:52:00,
2013-02-14 10:54:00,57.2,37.1,30.07,SSW,203,6.0,10.0,47,0.00,,,0.00,Wunderground v.1.15,2013-02-14 16:54:00,
2013-02-14 10:57:00,57.3,37.2,30.07,WSW,247,6.0,10.0,47,0.00,,,0.00,Wunderground v.1.15,2013-02-14 16:57:00,
2013-02-14 10:58:00,57.2,37.7,30.07,SSW,210,6.0,10.0,48,0.00,,,0.00,Wunderground v.1.15,2013-02-14 16:58:00,
2013-02-14 10:59:00,57.2,37.7,30.07,WSW,237,6.0,10.0,48,0.00,,,0.00,Wunderground v.1.15,2013-02-14 16:59:00,
2013-02-14 11:03:00,57.5,37.4,30.07,WSW,258,7.0,10.0,47,0.00,,,0.00,Wunderground v.1.15,2013-02-14 17:03:00,
2013-02-14 11:04:00,57.5,37.4,30.07,WSW,239,7.0,10.0,47,0.00,,,0.00,Wunderground v.1.15,2013-02-14 17:04:00,
2013-02-14 11:05:00,57.5,36.9,30.07,WSW,237,6.0,10.0,46,0.00,,,0.00,Wunderground v.1.15,2013-02-14 17:05:00,
2013-02-14 11:07:00,57.6,37.5,30.07,SW,217,5.0,10.0,47,0.00,,,0.00,Wunderground v.1.15,2013-02-14 17:07:00,
2013-02-14 11:11:00,58.0,36.8,30.07,SSW,198,5.0,13.0,45,0.00,,,0.00,Wunderground v.1.15,2013-02-14 17:11:00,
2013-02-14 11:12:00,58.1,36.9,30.07,SSW,195,5.0,13.0,45,0.00,,,0.00,Wunderground v.1.15,2013-02-14 17:12:00,
2013-02-14 11:13:00,58.1,36.9,30.07,SW,223,5.0,13.0,45,0.00,,,0.00,Wunderground v.1.15,2013-02-14 17:13:00,
2013-02-14 11:15:00,58.4,37.1,30.07,SSW,195,5.0,13.0,45,0.00,,,0.00,Wunderground v.1.15,2013-02-14 17:15:00,
2013-02-14 11:17:00,58.9,37.6,30.06,WSW,237,6.0,13.0,45,0.00,,,0.00,Wunderground v.1.15,2013-02-14 17:17:00,
2013-02-14 11:19:00,58.9,37.0,30.06,SSW,202,6.0,13.0,44,0.00,,,0.00,Wunderground v.1.15,2013-02-14 17:19:00,
2013-02-14 11:21:00,58.9,37.0,30.06,South,189,6.0,6.0,44,0.00,,,0.00,Wunderground v.1.15,2013-02-14 17:21:00,
2013-02-14 11:22:00,59.0,36.5,30.06,SSW,213,6.0,6.0,43,0.00,,,0.00,Wunderground v.1.15,2013-02-14 17:22:00,
2013-02-14 11:24:00,59.2,36.7,30.06,SSW,205,6.0,10.0,43,0.00,,,0.00,Wunderground v.1.15,2013-02-14 17:24:00,
2013-02-14 11:26:00,59.2,37.3,30.06,SW,223,6.0,10.0,44,0.00,,,0.00,Wunderground v.1.15,2013-02-14 17:26:00,
2013-02-14 11:29:00,59.0,37.7,30.06,SSW,193,6.0,10.0,45,0.00,,,0.00,Wunderground v.1.15,2013-02-14 17:29:00,
2013-02-14 11:31:00,59.0,37.7,30.06,WSW,257,6.0,6.0,45,0.00,,,0.00,Wunderground v.1.15,2013-02-14 17:31:00,
2013-02-14 11:34:00,59.2,37.9,30.06,SW,227,5.0,7.0,45,0.00,,,0.00,Wunderground v.1.15,2013-02-14 17:34:00,
2013-02-14 11:35:00,59.3,37.9,30.06,South,181,5.0,7.0,45,0.00,,,0.00,Wunderground v.1.15,2013-02-14 17:35:00,
2013-02-14 11:36:00,59.5,38.1,30.06,SW,216,5.0,7.0,45,0.00,,,0.00,Wunderground v.1.15,2013-02-14 17:36:00,
2013-02-14 11:38:00,59.5,37.6,30.06,SW,216,5.0,8.0,44,0.00,,,0.00,Wunderground v.1.15,2013-02-14 17:38:00,
2013-02-14 11:41:00,59.5,37.6,30.06,South,185,5.0,5.0,44,0.00,,,0.00,Wunderground v.1.15,2013-02-14 17:41:00,
2013-02-14 11:42:00,59.8,37.8,30.06,South,186,5.0,5.0,44,0.00,,,0.00,Wunderground v.1.15,2013-02-14 17:42:00,
2013-02-14 11:44:00,60.1,36.9,30.06,SSE,151,5.0,9.0,42,0.00,,,0.00,Wunderground v.1.15,2013-02-14 17:44:00,
2013-02-14 11:45:00,60.2,37.0,30.06,South,175,5.0,9.0,42,0.00,,,0.00,Wunderground v.1.15,2013-02-14 17:45:00,
2013-02-14 11:47:00,60.4,37.8,30.05,WSW,254,5.0,9.0,43,0.00,,,0.00,Wunderground v.1.15,2013-02-14 17:47:00,
2013-02-14 11:49:00,60.1,37.5,30.05,SW,224,5.0,10.0,43,0.00,,,0.00,Wunderground v.1.15,2013-02-14 17:49:00,
2013-02-14 11:51:00,59.9,37.3,30.05,SW,215,5.0,5.0,43,0.00,,,0.00,Wunderground v.1.15,2013-02-14 17:51:00,
2013-02-14 11:54:00,60.1,38.1,30.05,SSW,202,6.0,7.0,44,0.00,,,0.00,Wunderground v.1.15,2013-02-14 17:54:00,
2013-02-14 11:56:00,60.1,37.5,30.05,South,191,6.0,7.0,43,0.00,,,0.00,Wunderground v.1.15,2013-02-14 17:56:00,
2013-02-14 11:58:00,60.4,37.8,30.05,SSW,212,6.0,8.0,43,0.00,,,0.00,Wunderground v.1.15,2013-02-14 17:58:00,
2013-02-14 11:59:00,60.4,37.8,30.05,SSW,195,6.0,11.0,43,0.00,,,0.00,Wunderground v.1.15,2013-02-14 17:59:00,
2013-02-14 12:01:00,60.4,37.2,30.05,SW,216,6.0,10.0,42,0.00,,,0.00,Wunderground v.1.15,2013-02-14 18:01:00,
2013-02-14 12:05:00,60.5,36.7,30.05,South,181,6.0,10.0,41,0.00,,,0.00,Wunderground v.1.15,2013-02-14 18:05:00,
2013-02-14 12:06:00,60.7,36.8,30.05,SSW,196,6.0,10.0,41,0.00,,,0.00,Wunderground v.1.15,2013-02-14 18:06:00,
2013-02-14 12:07:00,60.7,37.5,30.05,South,172,6.0,10.0,42,0.00,,,0.00,Wunderground v.1.15,2013-02-14 18:07:00,
2013-02-14 12:12:00,61.3,37.4,30.05,SSW,208,5.0,7.0,41,0.00,,,0.00,Wunderground v.1.15,2013-02-14 18:12:00,
2013-02-14 12:14:00,61.5,37.6,30.05,South,179,5.0,9.0,41,0.00,,,0.00,Wunderground v.1.15,2013-02-14 18:14:00,
2013-02-14 12:16:00,61.5,36.9,30.04,SW,224,6.0,9.0,40,0.00,,,0.00,Wunderground v.1.15,2013-02-14 18:16:00,
2013-02-14 12:18:00,61.3,37.4,30.04,SW,219,5.0,12.0,41,0.00,,,0.00,Wunderground v.1.15,2013-02-14 18:18:00,
2013-02-14 12:19:00,61.5,36.9,30.04,SW,230,5.0,12.0,40,0.00,,,0.00,Wunderground v.1.15,2013-02-14 18:19:00,
2013-02-14 12:21:00,61.3,37.4,30.04,WSW,247,6.0,7.0,41,0.00,,,0.00,Wunderground v.1.15,2013-02-14 18:21:00,
2013-02-14 12:23:00,61.2,36.7,30.04,West,264,7.0,7.0,40,0.00,,,0.00,Wunderground v.1.15,2013-02-14 18:23:00,
2013-02-14 12:26:00,61.3,36.8,30.04,SSE,168,5.0,7.0,40,0.00,,,0.00,Wunderground v.1.15,2013-02-14 18:26:00,
2013-02-14 12:28:00,61.8,37.2,30.04,West,261,5.0,7.0,40,0.00,,,0.00,Wunderground v.1.15,2013-02-14 18:28:00,
2013-02-14 12:31:00,62.1,38.1,30.03,SSW,193,4.0,4.0,41,0.00,,,0.00,Wunderground v.1.15,2013-02-14 18:31:00,
2013-02-14 12:32:00,62.3,37.7,30.03,SW,222,4.0,12.0,40,0.00,,,0.00,Wunderground v.1.15,2013-02-14 18:32:00,
2013-02-14 12:33:00,62.3,37.0,30.03,SW,223,4.0,12.0,39,0.00,,,0.00,Wunderground v.1.15,2013-02-14 18:33:00,
2013-02-14 12:36:00,62.3,37.7,30.03,SW,233,5.0,12.0,40,0.00,,,0.00,Wunderground v.1.15,2013-02-14 18:36:00,
2013-02-14 12:37:00,62.3,37.7,30.03,West,261,5.0,12.0,40,0.00,,,0.00,Wunderground v.1.15,2013-02-14 18:37:00,
2013-02-14 12:38:00,62.4,37.7,30.03,SW,226,5.0,12.0,40,0.00,,,0.00,Wunderground v.1.15,2013-02-14 18:38:00,
2013-02-14 12:41:00,62.9,36.9,30.03,WSW,254,5.0,11.0,38,0.00,,,0.00,Wunderground v.1.15,2013-02-14 18:41:00,
2013-02-14 12:46:00,62.7,36.7,30.03,SSW,200,5.0,11.0,38,0.00,,,0.00,Wunderground v.1.15,2013-02-14 18:46:00,
2013-02-14 12:47:00,62.7,36.7,30.03,SSW,206,5.0,11.0,38,0.00,,,0.00,Wunderground v.1.15,2013-02-14 18:47:00,
2013-02-14 12:48:00,62.9,36.9,30.03,WSW,257,5.0,11.0,38,0.00,,,0.00,Wunderground v.1.15,2013-02-14 18:48:00,
2013-02-14 12:52:00,63.4,36.0,30.03,SW,217,5.0,7.0,36,0.00,,,0.00,Wunderground v.1.15,2013-02-14 18:52:00,
2013-02-14 12:54:00,63.4,36.7,30.03,SW,223,5.0,8.0,37,0.00,,,0.00,Wunderground v.1.15,2013-02-14 18:54:00,
2013-02-14 12:55:00,63.1,35.7,30.03,SW,229,5.0,8.0,36,0.00,,,0.00,Wunderground v.1.15,2013-02-14 18:55:00,
2013-02-14 12:57:00,63.1,37.1,30.03,WSW,256,7.0,9.0,38,0.00,,,0.00,Wunderground v.1.15,2013-02-14 18:57:00,
2013-02-14 13:01:00,63.5,36.7,30.02,WSW,237,6.0,11.0,37,0.00,,,0.00,Wunderground v.1.15,2013-02-14 19:01:00,
2013-02-14 13:02:00,63.5,36.7,30.02,SSW,205,6.0,11.0,37,0.00,,,0.00,Wunderground v.1.15,2013-02-14 19:02:00,
2013-02-14 13:03:00,63.7,36.9,30.02,South,191,6.0,11.0,37,0.00,,,0.00,Wunderground v.1.15,2013-02-14 19:03:00,
2013-02-14 13:04:00,63.9,37.8,30.02,South,191,5.0,11.0,38,0.00,,,0.00,Wunderground v.1.15,2013-02-14 19:04:00,
2013-02-14 13:07:00,64.3,36.8,30.02,South,172,4.0,11.0,36,0.00,,,0.00,Wunderground v.1.15,2013-02-14 19:07:00,
2013-02-14 13:09:00,64.2,36.0,30.02,South,189,5.0,11.0,35,0.00,,,0.00,Wunderground v.1.15,2013-02-14 19:09:00,
2013-02-14 13:14:00,64.0,35.8,30.02,WSW,256,7.0,11.0,35,0.00,,,0.00,Wunderground v.1.15,2013-02-14 19:14:00,
2013-02-14 13:16:00,63.9,35.7,30.00,WSW,244,8.0,11.0,35,0.00,,,0.00,Wunderground v.1.15,2013-02-14 19:16:00,
2013-02-14 13:17:00,63.9,35.7,30.00,West,263,8.0,11.0,35,0.00,,,0.00,Wunderground v.1.15,2013-02-14 19:17:00,
2013-02-14 13:19:00,63.9,35.7,30.00,WSW,241,7.0,12.0,35,0.00,,,0.00,Wunderground v.1.15,2013-02-14 19:19:00,
2013-02-14 13:20:00,63.9,35.7,30.00,SW,233,7.0,7.0,35,0.00,,,0.00,Wunderground v.1.15,2013-02-14 19:20:00,
2013-02-14 13:23:00,64.3,36.8,30.00,SSW,196,7.0,7.0,36,0.00,,,0.00,Wunderground v.1.15,2013-02-14 19:23:00,
2013-02-14 13:25:00,64.7,37.8,30.00,WSW,246,6.0,7.0,37,0.00,,,0.00,Wunderground v.1.15,2013-02-14 19:25:00,
2013-02-14 13:27:00,64.8,37.2,30.00,WSW,237,6.0,7.0,36,0.00,,,0.00,Wunderground v.1.15,2013-02-14 19:27:00,
2013-02-14 13:28:00,65.0,37.4,30.00,SW,219,6.0,10.0,36,0.00,,,0.00,Wunderground v.1.15,2013-02-14 19:28:00,
2013-02-14 13:31:00,64.7,36.4,29.99,SW,223,7.0,12.0,35,0.00,,,0.00,Wunderground v.1.15,2013-02-14 19:31:00,
2013-02-14 13:33:00,64.3,36.0,29.99,SSW,208,7.0,12.0,35,0.00,,,0.00,Wunderground v.1.15,2013-02-14 19:33:00,
2013-02-14 13:34:00,64.5,36.2,29.99,WSW,247,7.0,12.0,35,0.00,,,0.00,Wunderground v.1.15,2013-02-14 19:34:00,
2013-02-14 13:36:00,64.5,36.9,29.99,SW,217,7.0,12.0,36,0.00,,,0.00,Wunderground v.1.15,2013-02-14 19:36:00,
2013-02-14 13:38:00,64.8,36.5,29.99,South,184,7.0,12.0,35,0.00,,,0.00,Wunderground v.1.15,2013-02-14 19:38:00,
2013-02-14 13:39:00,65.2,36.8,29.99,SSE,162,6.0,12.0,35,0.00,,,0.00,Wunderground v.1.15,2013-02-14 19:39:00,
2013-02-14 13:43:00,65.3,36.2,29.99,South,176,5.0,8.0,34,0.00,,,0.00,Wunderground v.1.15,2013-02-14 19:43:00,
2013-02-14 13:44:00,65.6,37.2,29.99,SW,227,5.0,8.0,35,0.00,,,0.00,Wunderground v.1.15,2013-02-14 19:44:00,
2013-02-14 13:45:00,65.8,35.9,29.99,SW,226,5.0,8.0,33,0.00,,,0.00,Wunderground v.1.15,2013-02-14 19:45:00,
2013-02-14 13:48:00,65.8,35.9,29.98,SSW,206,5.0,8.0,33,0.00,,,0.00,Wunderground v.1.15,2013-02-14 19:48:00,
2013-02-14 13:51:00,66.1,36.9,29.98,SW,219,4.0,4.0,34,0.00,,,0.00,Wunderground v.1.15,2013-02-14 19:51:00,
2013-02-14 13:54:00,66.0,36.1,29.98,SSW,193,4.0,8.0,33,0.00,,,0.00,Wunderground v.1.15,2013-02-14 19:54:00,
2013-02-14 13:58:00,66.3,35.5,29.98,SSW,198,4.0,8.0,32,0.00,,,0.00,Wunderground v.1.15,2013-02-14 19:58:00,
2013-02-14 13:59:00,66.3,35.5,29.98,SSW,209,4.0,8.0,32,0.00,,,0.00,Wunderground v.1.15,2013-02-14 19:59:00,
2013-02-14 14:01:00,66.3,35.5,29.97,WSW,256,5.0,5.0,32,0.00,,,0.00,Wunderground v.1.15,2013-02-14 20:01:00,
2013-02-14 14:02:00,66.1,35.4,29.97,SW,227,5.0,5.0,32,0.00,,,0.00,Wunderground v.1.15,2013-02-14 20:02:00,
2013-02-14 14:03:00,66.1,35.4,29.97,WSW,244,6.0,9.0,32,0.00,,,0.00,Wunderground v.1.15,2013-02-14 20:03:00,
2013-02-14 14:06:00,66.3,35.5,29.97,WSW,250,5.0,9.0,32,0.00,,,0.00,Wunderground v.1.15,2013-02-14 20:06:00,
2013-02-14 14:08:00,66.4,34.8,29.97,WSW,247,5.0,9.0,31,0.00,,,0.00,Wunderground v.1.15,2013-02-14 20:08:00,
2013-02-14 14:11:00,66.1,36.1,29.97,SSE,164,4.0,5.0,33,0.00,,,0.00,Wunderground v.1.15,2013-02-14 20:11:00,
2013-02-14 14:13:00,66.4,34.8,29.97,SSW,192,5.0,6.0,31,0.00,,,0.00,Wunderground v.1.15,2013-02-14 20:13:00,
2013-02-14 14:14:00,66.4,34.0,29.97,SW,217,5.0,11.0,30,0.00,,,0.00,Wunderground v.1.15,2013-02-14 20:14:00,
2013-02-14 14:17:00,66.8,35.2,29.96,SSW,212,6.0,11.0,31,0.00,,,0.00,Wunderground v.1.15,2013-02-14 20:17:00,
2013-02-14 14:19:00,66.9,33.6,29.96,SW,224,6.0,11.0,29,0.00,,,0.00,Wunderground v.1.15,2013-02-14 20:19:00,
2013-02-14 14:23:00,67.3,33.9,29.96,SW,234,5.0,7.0,29,0.00,,,0.00,Wunderground v.1.15,2013-02-14 20:23:00,
2013-02-14 14:24:00,67.1,33.8,29.96,SW,226,5.0,7.0,29,0.00,,,0.00,Wunderground v.1.15,2013-02-14 20:24:00,
2013-02-14 14:25:00,67.1,34.6,29.96,SW,227,5.0,7.0,30,0.00,,,0.00,Wunderground v.1.15,2013-02-14 20:25:00,
2013-02-14 14:29:00,66.9,35.3,29.96,South,179,5.0,11.0,31,0.00,,,0.00,Wunderground v.1.15,2013-02-14 20:29:00,
2013-02-14 14:30:00,67.1,35.4,29.95,South,185,5.0,11.0,31,0.00,,,0.00,Wunderground v.1.15,2013-02-14 20:30:00,
2013-02-14 14:32:00,67.3,35.6,29.95,SSE,158,5.0,5.0,31,0.00,,,0.00,Wunderground v.1.15,2013-02-14 20:32:00,
2013-02-14 14:34:00,67.1,36.2,29.95,SW,233,5.0,5.0,32,0.00,,,0.00,Wunderground v.1.15,2013-02-14 20:34:00,
2013-02-14 14:37:00,67.4,34.9,29.95,SSW,212,6.0,7.0,30,0.00,,,0.00,Wunderground v.1.15,2013-02-14 20:37:00,
2013-02-14 14:38:00,67.4,34.9,29.95,SSE,158,5.0,8.0,30,0.00,,,0.00,Wunderground v.1.15,2013-02-14 20:38:00,
2013-02-14 14:40:00,67.1,34.6,29.95,SSE,160,6.0,8.0,30,0.00,,,0.00,Wunderground v.1.15,2013-02-14 20:40:00,
2013-02-14 14:42:00,66.9,34.4,29.95,SSE,157,6.0,6.0,30,0.00,,,0.00,Wunderground v.1.15,2013-02-14 20:42:00,
2013-02-14 14:43:00,66.9,34.4,29.95,SSE,155,5.0,6.0,30,0.00,,,0.00,Wunderground v.1.15,2013-02-14 20:43:00,
2013-02-14 14:44:00,66.9,34.4,29.95,SE,140,5.0,6.0,30,0.00,,,0.00,Wunderground v.1.15,2013-02-14 20:44:00,
2013-02-14 14:48:00,67.6,35.0,29.94,South,191,3.0,6.0,30,0.00,,,0.00,Wunderground v.1.15,2013-02-14 20:48:00,
2013-02-14 14:49:00,67.6,34.2,29.94,South,191,3.0,6.0,29,0.00,,,0.00,Wunderground v.1.15,2013-02-14 20:49:00,
2013-02-14 14:51:00,67.6,34.2,29.94,WSW,240,3.0,6.0,29,0.00,,,0.00,Wunderground v.1.15,2013-02-14 20:51:00,
2013-02-14 14:53:00,67.4,34.0,29.94,WSW,257,4.0,9.0,29,0.00,,,0.00,Wunderground v.1.15,2013-02-14 20:53:00,
2013-02-14 14:54:00,67.4,34.9,29.94,WSW,250,4.0,9.0,30,0.00,,,0.00,Wunderground v.1.15,2013-02-14 20:54:00,
2013-02-14 14:57:00,67.4,34.9,29.94,SW,223,6.0,11.0,30,0.00,,,0.00,Wunderground v.1.15,2013-02-14 20:57:00,
2013-02-14 14:58:00,67.4,34.9,29.94,SSW,208,6.0,11.0,30,0.00,,,0.00,Wunderground v.1.15,2013-02-14 20:58:00,
2013-02-14 15:00:00,67.8,34.4,29.94,SW,229,6.0,6.0,29,0.00,,,0.00,Wunderground v.1.15,2013-02-14 21:00:00,
2013-02-14 15:02:00,67.9,35.3,29.94,WSW,240,6.0,6.0,30,0.00,,,0.00,Wunderground v.1.15,2013-02-14 21:02:00,
2013-02-14 15:04:00,67.9,34.4,29.94,West,263,6.0,6.0,29,0.00,,,0.00,Wunderground v.1.15,2013-02-14 21:04:00,
2013-02-14 15:07:00,67.9,34.4,29.94,SW,230,5.0,6.0,29,0.00,,,0.00,Wunderground v.1.15,2013-02-14 21:07:00,
2013-02-14 15:08:00,67.9,34.4,29.94,SW,229,5.0,6.0,29,0.00,,,0.00,Wunderground v.1.15,2013-02-14 21:08:00,
2013-02-14 15:09:00,68.1,34.6,29.94,SW,227,5.0,6.0,29,0.00,,,0.00,Wunderground v.1.15,2013-02-14 21:09:00,
2013-02-14 15:13:00,68.4,34.9,29.94,SSW,210,4.0,8.0,29,0.00,,,0.00,Wunderground v.1.15,2013-02-14 21:13:00,
2013-02-14 15:14:00,68.4,35.7,29.94,SW,217,4.0,8.0,30,0.00,,,0.00,Wunderground v.1.15,2013-02-14 21:14:00,
2013-02-14 15:18:00,68.4,34.9,29.93,ESE,113,4.0,8.0,29,0.00,,,0.00,Wunderground v.1.15,2013-02-14 21:18:00,
2013-02-14 15:19:00,68.3,35.6,29.93,SSW,209,4.0,8.0,30,0.00,,,0.00,Wunderground v.1.15,2013-02-14 21:19:00,
2013-02-14 15:20:00,68.3,36.5,29.93,SW,232,4.0,4.0,31,0.00,,,0.00,Wunderground v.1.15,2013-02-14 21:20:00,
2013-02-14 15:21:00,68.4,36.6,29.93,SW,220,4.0,8.0,31,0.00,,,0.00,Wunderground v.1.15,2013-02-14 21:21:00,
2013-02-14 15:26:00,68.1,34.6,29.93,South,172,5.0,10.0,29,0.00,,,0.00,Wunderground v.1.15,2013-02-14 21:26:00,
2013-02-14 15:27:00,67.9,34.4,29.93,South,172,5.0,10.0,29,0.00,,,0.00,Wunderground v.1.15,2013-02-14 21:27:00,
2013-02-14 15:30:00,67.9,35.3,29.93,South,176,4.0,5.0,30,0.00,,,0.00,Wunderground v.1.15,2013-02-14 21:30:00,
2013-02-14 15:32:00,68.3,34.8,29.93,South,186,3.0,5.0,29,0.00,,,0.00,Wunderground v.1.15,2013-02-14 21:32:00,
2013-02-14 15:33:00,68.4,34.9,29.93,South,178,3.0,5.0,29,0.00,,,0.00,Wunderground v.1.15,2013-02-14 21:33:00,
2013-02-14 15:38:00,68.4,34.9,29.93,SW,223,4.0,10.0,29,0.00,,,0.00,Wunderground v.1.15,2013-02-14 21:38:00,
2013-02-14 15:40:00,68.4,34.9,29.93,SSW,195,4.0,8.0,29,0.00,,,0.00,Wunderground v.1.15,2013-02-14 21:40:00,
2013-02-14 15:42:00,68.3,34.8,29.93,South,191,5.0,8.0,29,0.00,,,0.00,Wunderground v.1.15,2013-02-14 21:42:00,
2013-02-14 15:43:00,68.3,34.8,29.93,South,188,4.0,8.0,29,0.00,,,0.00,Wunderground v.1.15,2013-02-14 21:43:00,
2013-02-14 15:44:00,68.4,35.7,29.93,SW,217,5.0,8.0,30,0.00,,,0.00,Wunderground v.1.15,2013-02-14 21:44:00,
2013-02-14 15:47:00,68.9,34.4,29.92,SW,227,4.0,8.0,28,0.00,,,0.00,Wunderground v.1.15,2013-02-14 21:47:00,
2013-02-14 15:49:00,68.9,35.3,29.92,SW,233,4.0,8.0,29,0.00,,,0.00,Wunderground v.1.15,2013-02-14 21:49:00,
2013-02-14 15:50:00,69.1,35.5,29.92,SW,232,4.0,4.0,29,0.00,,,0.00,Wunderground v.1.15,2013-02-14 21:50:00,
2013-02-14 15:55:00,69.4,34.9,29.92,WSW,240,4.0,8.0,28,0.00,,,0.00,Wunderground v.1.15,2013-02-14 21:55:00,
2013-02-14 15:57:00,69.3,34.8,29.92,SSE,167,4.0,8.0,28,0.00,,,0.00,Wunderground v.1.15,2013-02-14 21:57:00,
2013-02-14 15:58:00,69.3,34.8,29.92,SSW,193,4.0,9.0,28,0.00,,,0.00,Wunderground v.1.15,2013-02-14 21:58:00,
2013-02-14 16:01:00,68.9,35.3,29.93,South,182,4.0,8.0,29,0.00,,,0.00,Wunderground v.1.15,2013-02-14 22:01:00,
2013-02-14 16:04:00,68.8,35.2,29.93,South,184,5.0,8.0,29,0.00,,,0.00,Wunderground v.1.15,2013-02-14 22:04:00,
2013-02-14 16:06:00,68.8,34.3,29.93,South,185,5.0,8.0,28,0.00,,,0.00,Wunderground v.1.15,2013-02-14 22:06:00,
2013-02-14 16:07:00,68.6,34.2,29.93,SE,140,5.0,8.0,28,0.00,,,0.00,Wunderground v.1.15,2013-02-14 22:07:00,
2013-02-14 16:09:00,68.3,33.9,29.93,South,179,5.0,8.0,28,0.00,,,0.00,Wunderground v.1.15,2013-02-14 22:09:00,
2013-02-14 16:11:00,68.3,33.9,29.93,South,178,4.0,4.0,28,0.00,,,0.00,Wunderground v.1.15,2013-02-14 22:11:00,
2013-02-14 16:13:00,68.6,35.1,29.93,SSW,198,4.0,4.0,29,0.00,,,0.00,Wunderground v.1.15,2013-02-14 22:13:00,
2013-02-14 16:16:00,68.9,34.4,29.93,SSW,198,3.0,4.0,28,0.00,,,0.00,Wunderground v.1.15,2013-02-14 22:16:00,
2013-02-14 16:17:00,68.9,35.3,29.93,SSW,209,3.0,4.0,29,0.00,,,0.00,Wunderground v.1.15,2013-02-14 22:17:00,
2013-02-14 16:18:00,69.1,36.3,29.93,WSW,244,2.0,4.0,30,0.00,,,0.00,Wunderground v.1.15,2013-02-14 22:18:00,
2013-02-14 16:21:00,69.4,35.7,29.93,SW,219,3.0,3.0,29,0.00,,,0.00,Wunderground v.1.15,2013-02-14 22:21:00,
2013-02-14 16:23:00,69.3,35.7,29.93,South,188,4.0,6.0,29,0.00,,,0.00,Wunderground v.1.15,2013-02-14 22:23:00,
2013-02-14 16:25:00,68.9,34.4,29.93,SSE,158,5.0,8.0,28,0.00,,,0.00,Wunderground v.1.15,2013-02-14 22:25:00,
2013-02-14 16:26:00,68.8,35.2,29.93,South,181,4.0,8.0,29,0.00,,,0.00,Wunderground v.1.15,2013-02-14 22:26:00,
2013-02-14 16:27:00,68.6,35.1,29.93,South,184,4.0,8.0,29,0.00,,,0.00,Wunderground v.1.15,2013-02-14 22:27:00,
2013-02-14 16:29:00,68.4,35.7,29.93,SSE,155,5.0,8.0,30,0.00,,,0.00,Wunderground v.1.15,2013-02-14 22:29:00,
2013-02-14 16:30:00,68.4,36.6,29.93,SW,217,5.0,8.0,31,0.00,,,0.00,Wunderground v.1.15,2013-02-14 22:30:00,
2013-02-14 16:33:00,68.6,35.9,29.93,South,182,4.0,5.0,30,0.00,,,0.00,Wunderground v.1.15,2013-02-14 22:33:00,
2013-02-14 16:34:00,68.6,35.9,29.93,SW,222,4.0,10.0,30,0.00,,,0.00,Wunderground v.1.15,2013-02-14 22:34:00,
2013-02-14 16:36:00,68.6,35.9,29.93,South,178,4.0,10.0,30,0.00,,,0.00,Wunderground v.1.15,2013-02-14 22:36:00,
2013-02-14 16:37:00,68.6,35.9,29.93,SSW,193,4.0,10.0,30,0.00,,,0.00,Wunderground v.1.15,2013-02-14 22:37:00,
2013-02-14 16:41:00,68.1,36.3,29.93,SE,137,3.0,3.0,31,0.00,,,0.00,Wunderground v.1.15,2013-02-14 22:41:00,
2013-02-14 16:43:00,67.9,36.1,29.93,SSE,161,4.0,6.0,31,0.00,,,0.00,Wunderground v.1.15,2013-02-14 22:43:00,
2013-02-14 16:44:00,67.8,36.0,29.93,SE,141,4.0,6.0,31,0.00,,,0.00,Wunderground v.1.15,2013-02-14 22:44:00,
2013-02-14 16:45:00,67.8,36.0,29.93,South,171,4.0,6.0,31,0.00,,,0.00,Wunderground v.1.15,2013-02-14 22:45:00,
2013-02-14 16:46:00,67.8,36.8,29.93,South,188,4.0,8.0,32,0.00,,,0.00,Wunderground v.1.15,2013-02-14 22:46:00,
2013-02-14 16:48:00,67.9,35.3,29.93,SW,219,4.0,8.0,30,0.00,,,0.00,Wunderground v.1.15,2013-02-14 22:48:00,
2013-02-14 16:51:00,68.3,36.5,29.93,South,189,4.0,6.0,31,0.00,,,0.00,Wunderground v.1.15,2013-02-14 22:51:00,
2013-02-14 16:53:00,68.1,35.5,29.93,SSW,192,5.0,6.0,30,0.00,,,0.00,Wunderground v.1.15,2013-02-14 22:53:00,
2013-02-14 16:54:00,68.1,35.5,29.93,SSW,192,4.0,6.0,30,0.00,,,0.00,Wunderground v.1.15,2013-02-14 22:54:00,
2013-02-14 16:57:00,68.3,35.6,29.93,SSW,192,3.0,6.0,30,0.00,,,0.00,Wunderground v.1.15,2013-02-14 22:57:00,
2013-02-14 16:58:00,68.3,35.6,29.93,SSE,168,3.0,6.0,30,0.00,,,0.00,Wunderground v.1.15,2013-02-14 22:58:00,
2013-02-14 17:00:00,68.3,35.6,29.93,South,184,3.0,5.0,30,0.00,,,0.00,Wunderground v.1.15,2013-02-14 23:00:00,
2013-02-14 17:03:00,67.9,35.3,29.93,South,171,3.0,5.0,30,0.00,,,0.00,Wunderground v.1.15,2013-02-14 23:03:00,
2013-02-14 17:04:00,67.8,35.2,29.93,South,171,3.0,5.0,30,0.00,,,0.00,Wunderground v.1.15,2013-02-14 23:04:00,
2013-02-14 17:06:00,67.8,36.0,29.93,WSW,237,3.0,6.0,31,0.00,,,0.00,Wunderground v.1.15,2013-02-14 23:06:00,
2013-02-14 17:07:00,67.9,36.1,29.93,SW,234,3.0,6.0,31,0.00,,,0.00,Wunderground v.1.15,2013-02-14 23:07:00,
2013-02-14 17:12:00,68.3,36.5,29.93,SSW,198,2.0,11.0,31,0.00,,,0.00,Wunderground v.1.15,2013-02-14 23:12:00,
2013-02-14 17:13:00,68.3,36.5,29.93,SSW,193,3.0,11.0,31,0.00,,,0.00,Wunderground v.1.15,2013-02-14 23:13:00,
2013-02-14 17:16:00,67.9,36.1,29.93,South,179,4.0,11.0,31,0.00,,,0.00,Wunderground v.1.15,2013-02-14 23:16:00,
2013-02-14 17:17:00,67.8,36.0,29.93,SSE,161,4.0,11.0,31,0.00,,,0.00,Wunderground v.1.15,2013-02-14 23:17:00,
2013-02-14 17:21:00,67.3,36.4,29.93,SSW,192,5.0,5.0,32,0.00,,,0.00,Wunderground v.1.15,2013-02-14 23:21:00,
2013-02-14 17:24:00,67.3,36.4,29.93,South,188,4.0,6.0,32,0.00,,,0.00,Wunderground v.1.15,2013-02-14 23:24:00,
2013-02-14 17:25:00,67.3,36.4,29.93,SSW,193,5.0,6.0,32,0.00,,,0.00,Wunderground v.1.15,2013-02-14 23:25:00,
2013-02-14 17:30:00,67.1,36.2,29.93,South,171,4.0,4.0,32,0.00,,,0.00,Wunderground v.1.15,2013-02-14 23:30:00,
2013-02-14 17:31:00,66.9,36.1,29.93,SE,128,4.0,7.0,32,0.00,,,0.00,Wunderground v.1.15,2013-02-14 23:31:00,
2013-02-14 17:33:00,66.9,36.1,29.93,SSW,195,4.0,7.0,32,0.00,,,0.00,Wunderground v.1.15,2013-02-14 23:33:00,
2013-02-14 17:36:00,66.8,36.0,29.93,South,186,5.0,7.0,32,0.00,,,0.00,Wunderground v.1.15,2013-02-14 23:36:00,
2013-02-14 17:39:00,66.6,36.6,29.93,SE,136,4.0,9.0,33,0.00,,,0.00,Wunderground v.1.15,2013-02-14 23:39:00,
2013-02-14 17:41:00,66.4,36.4,29.93,SSW,203,5.0,5.0,33,0.00,,,0.00,Wunderground v.1.15,2013-02-14 23:41:00,
2013-02-14 17:42:00,66.4,36.4,29.93,South,181,5.0,6.0,33,0.00,,,0.00,Wunderground v.1.15,2013-02-14 23:42:00,
2013-02-14 17:44:00,66.3,36.3,29.93,South,178,5.0,8.0,33,0.00,,,0.00,Wunderground v.1.15,2013-02-14 23:44:00,
2013-02-14 17:45:00,66.3,36.3,29.93,South,189,5.0,8.0,33,0.00,,,0.00,Wunderground v.1.15,2013-02-14 23:45:00,
2013-02-14 17:47:00,66.1,36.1,29.93,South,188,5.0,8.0,33,0.00,,,0.00,Wunderground v.1.15,2013-02-14 23:47:00,
2013-02-14 17:50:00,66.0,36.8,29.93,South,182,4.0,5.0,34,0.00,,,0.00,Wunderground v.1.15,2013-02-14 23:50:00,
2013-02-14 17:53:00,66.0,37.5,29.93,South,182,3.0,5.0,35,0.00,,,0.00,Wunderground v.1.15,2013-02-14 23:53:00,
2013-02-14 17:55:00,66.0,37.5,29.93,South,186,3.0,5.0,35,0.00,,,0.00,Wunderground v.1.15,2013-02-14 23:55:00,
2013-02-14 17:56:00,66.0,37.5,29.93,SSW,200,3.0,5.0,35,0.00,,,0.00,Wunderground v.1.15,2013-02-14 23:56:00,
2013-02-14 17:57:00,66.0,37.5,29.93,SSW,200,2.0,5.0,35,0.00,,,0.00,Wunderground v.1.15,2013-02-14 23:57:00,
2013-02-14 17:58:00,65.8,37.4,29.93,SSW,200,2.0,5.0,35,0.00,,,0.00,Wunderground v.1.15,2013-02-14 23:58:00,
2013-02-14 18:03:00,65.5,37.1,29.94,South,175,2.0,7.0,35,0.00,,,0.00,Wunderground v.1.15,2013-02-15 00:03:00,
2013-02-14 18:04:00,65.5,37.1,29.94,South,178,2.0,7.0,35,0.00,,,0.00,Wunderground v.1.15,2013-02-15 00:04:00,
2013-02-14 18:07:00,65.3,36.9,29.94,South,171,2.0,7.0,35,0.00,,,0.00,Wunderground v.1.15,2013-02-15 00:07:00,
2013-02-14 18:09:00,65.2,37.6,29.94,South,172,2.0,7.0,36,0.00,,,0.00,Wunderground v.1.15,2013-02-15 00:09:00,
2013-02-14 18:10:00,65.0,37.4,29.94,SSE,152,1.0,1.0,36,0.00,,,0.00,Wunderground v.1.15,2013-02-15 00:10:00,
2013-02-14 18:13:00,64.8,37.2,29.94,SSE,152,1.0,1.0,36,0.00,,,0.00,Wunderground v.1.15,2013-02-15 00:13:00,
2013-02-14 18:14:00,64.7,37.1,29.94,SSE,152,1.0,1.0,36,0.00,,,0.00,Wunderground v.1.15,2013-02-15 00:14:00,
2013-02-14 18:16:00,64.5,37.6,29.94,SSE,152,1.0,1.0,37,0.00,,,0.00,Wunderground v.1.15,2013-02-15 00:16:00,
2013-02-14 18:17:00,64.5,37.6,29.94,SSE,154,1.0,1.0,37,0.00,,,0.00,Wunderground v.1.15,2013-02-15 00:17:00,
2013-02-14 18:18:00,64.3,37.5,29.94,SE,140,1.0,2.0,37,0.00,,,0.00,Wunderground v.1.15,2013-02-15 00:18:00,
2013-02-14 18:20:00,64.2,37.4,29.94,SE,143,1.0,3.0,37,0.00,,,0.00,Wunderground v.1.15,2013-02-15 00:20:00,
2013-02-14 18:23:00,63.9,37.1,29.94,SE,144,1.0,3.0,37,0.00,,,0.00,Wunderground v.1.15,2013-02-15 00:23:00,
2013-02-14 18:25:00,63.7,37.6,29.94,SE,144,1.0,3.0,38,0.00,,,0.00,Wunderground v.1.15,2013-02-15 00:25:00,
2013-02-14 18:26:00,63.7,37.6,29.94,SSE,147,1.0,3.0,38,0.00,,,0.00,Wunderground v.1.15,2013-02-15 00:26:00,
2013-02-14 18:30:00,63.2,37.2,29.95,SSW,193,1.0,3.0,38,0.00,,,0.00,Wunderground v.1.15,2013-02-15 00:30:00,
2013-02-14 18:31:00,63.2,37.2,29.95,SSW,192,1.0,3.0,38,0.00,,,0.00,Wunderground v.1.15,2013-02-15 00:31:00,
2013-02-14 18:32:00,63.1,37.1,29.95,SSE,165,1.0,3.0,38,0.00,,,0.00,Wunderground v.1.15,2013-02-15 00:32:00,
2013-02-14 18:38:00,62.6,37.3,29.95,SSE,161,3.0,3.0,39,0.00,,,0.00,Wunderground v.1.15,2013-02-15 00:38:00,
2013-02-14 18:39:00,62.6,37.3,29.95,SSE,161,3.0,3.0,39,0.00,,,0.00,Wunderground v.1.15,2013-02-15 00:39:00,
2013-02-14 18:41:00,62.4,37.1,29.95,SSE,162,3.0,3.0,39,0.00,,,0.00,Wunderground v.1.15,2013-02-15 00:41:00,
2013-02-14 18:42:00,62.4,37.1,29.95,SSE,162,3.0,3.0,39,0.00,,,0.00,Wunderground v.1.15,2013-02-15 00:42:00,
2013-02-14 18:46:00,62.1,37.5,29.95,SSE,152,3.0,3.0,40,0.00,,,0.00,Wunderground v.1.15,2013-02-15 00:46:00,
2013-02-14 18:48:00,62.0,38.0,29.95,SSE,152,2.0,3.0,41,0.00,,,0.00,Wunderground v.1.15,2013-02-15 00:48:00,
2013-02-14 18:51:00,61.8,37.8,29.95,SE,141,2.0,2.0,41,0.00,,,0.00,Wunderground v.1.15,2013-02-15 00:51:00,
2013-02-14 18:52:00,61.8,37.8,29.95,SE,141,2.0,2.0,41,0.00,,,0.00,Wunderground v.1.15,2013-02-15 00:52:00,
2013-02-14 18:54:00,61.6,37.7,29.95,SE,143,2.0,2.0,41,0.00,,,0.00,Wunderground v.1.15,2013-02-15 00:54:00,
2013-02-14 18:56:00,61.5,37.6,29.95,SE,144,2.0,2.0,41,0.00,,,0.00,Wunderground v.1.15,2013-02-15 00:56:00,
2013-02-14 18:57:00,61.5,37.6,29.95,SE,144,2.0,3.0,41,0.00,,,0.00,Wunderground v.1.15,2013-02-15 00:57:00,
2013-02-14 18:59:00,61.3,38.0,29.95,SE,144,2.0,3.0,42,0.00,,,0.00,Wunderground v.1.15,2013-02-15 00:59:00,
2013-02-14 19:01:00,61.2,37.9,29.94,SE,144,2.0,2.0,42,0.00,,,0.00,Wunderground v.1.15,2013-02-15 01:01:00,
2013-02-14 19:04:00,61.0,37.7,29.94,SE,144,2.0,3.0,42,0.00,,,0.00,Wunderground v.1.15,2013-02-15 01:04:00,
2013-02-14 19:05:00,61.0,38.3,29.94,SE,144,2.0,3.0,43,0.00,,,0.00,Wunderground v.1.15,2013-02-15 01:05:00,
2013-02-14 19:07:00,60.9,38.2,29.94,SE,144,2.0,3.0,43,0.00,,,0.00,Wunderground v.1.15,2013-02-15 01:07:00,
2013-02-14 19:09:00,60.7,38.1,29.94,SE,144,2.0,5.0,43,0.00,,,0.00,Wunderground v.1.15,2013-02-15 01:09:00,
2013-02-14 19:11:00,60.7,38.1,29.94,SE,137,2.0,3.0,43,0.00,,,0.00,Wunderground v.1.15,2013-02-15 01:11:00,
2013-02-14 19:13:00,60.5,37.9,29.94,SE,137,2.0,3.0,43,0.00,,,0.00,Wunderground v.1.15,2013-02-15 01:13:00,
2013-02-14 19:14:00,60.5,37.9,29.94,SE,137,2.0,3.0,43,0.00,,,0.00,Wunderground v.1.15,2013-02-15 01:14:00,
2013-02-14 19:18:00,60.2,38.2,29.95,SE,137,2.0,3.0,44,0.00,,,0.00,Wunderground v.1.15,2013-02-15 01:18:00,
2013-02-14 19:19:00,60.2,38.2,29.95,SE,137,2.0,3.0,44,0.00,,,0.00,Wunderground v.1.15,2013-02-15 01:19:00,
2013-02-14 19:21:00,60.2,38.2,29.95,SE,137,2.0,2.0,44,0.00,,,0.00,Wunderground v.1.15,2013-02-15 01:21:00,
2013-02-14 19:23:00,60.1,38.1,29.95,SE,137,2.0,2.0,44,0.00,,,0.00,Wunderground v.1.15,2013-02-15 01:23:00,
2013-02-14 19:24:00,60.1,38.1,29.95,SE,137,2.0,2.0,44,0.00,,,0.00,Wunderground v.1.15,2013-02-15 01:24:00,
2013-02-14 19:27:00,59.9,37.9,29.95,SE,137,2.0,2.0,44,0.00,,,0.00,Wunderground v.1.15,2013-02-15 01:27:00,
2013-02-14 19:28:00,59.9,37.9,29.95,SE,137,2.0,2.0,44,0.00,,,0.00,Wunderground v.1.15,2013-02-15 01:28:00,
2013-02-14 19:30:00,59.8,37.8,29.95,SE,137,1.0,2.0,44,0.00,,,0.00,Wunderground v.1.15,2013-02-15 01:30:00,
2013-02-14 19:31:00,59.8,37.8,29.95,SE,137,1.0,3.0,44,0.00,,,0.00,Wunderground v.1.15,2013-02-15 01:31:00,
2013-02-14 19:34:00,59.6,37.6,29.95,SE,137,2.0,3.0,44,0.00,,,0.00,Wunderground v.1.15,2013-02-15 01:34:00,
2013-02-14 19:37:00,59.5,38.1,29.95,SE,136,2.0,3.0,45,0.00,,,0.00,Wunderground v.1.15,2013-02-15 01:37:00,
2013-02-14 19:39:00,59.3,37.9,29.95,SE,137,2.0,4.0,45,0.00,,,0.00,Wunderground v.1.15,2013-02-15 01:39:00,
2013-02-14 19:41:00,59.3,37.9,29.95,SE,137,2.0,3.0,45,0.00,,,0.00,Wunderground v.1.15,2013-02-15 01:41:00,
2013-02-14 19:42:00,59.3,37.9,29.95,SE,137,2.0,3.0,45,0.00,,,0.00,Wunderground v.1.15,2013-02-15 01:42:00,
2013-02-14 19:46:00,59.2,37.9,29.95,SE,136,2.0,3.0,45,0.00,,,0.00,Wunderground v.1.15,2013-02-15 01:46:00,
2013-02-14 19:47:00,59.2,37.9,29.95,SE,136,2.0,3.0,45,0.00,,,0.00,Wunderground v.1.15,2013-02-15 01:47:00,
2013-02-14 19:48:00,59.2,37.9,29.95,SE,136,2.0,3.0,45,0.00,,,0.00,Wunderground v.1.15,2013-02-15 01:48:00,
2013-02-14 19:52:00,59.0,37.7,29.95,SE,136,2.0,2.0,45,0.00,,,0.00,Wunderground v.1.15,2013-02-15 01:52:00,
2013-02-14 19:53:00,59.0,37.7,29.95,SE,136,2.0,2.0,45,0.00,,,0.00,Wunderground v.1.15,2013-02-15 01:53:00,
2013-02-14 19:56:00,58.9,37.6,29.95,SE,137,2.0,2.0,45,0.00,,,0.00,Wunderground v.1.15,2013-02-15 01:56:00,
2013-02-14 19:59:00,58.9,37.6,29.95,SE,138,2.0,4.0,45,0.00,,,0.00,Wunderground v.1.15,2013-02-15 01:59:00,
2013-02-14 20:01:00,58.9,37.6,29.95,SE,138,2.0,3.0,45,0.00,,,0.00,Wunderground v.1.15,2013-02-15 02:01:00,
2013-02-14 20:02:00,58.9,37.6,29.95,SE,138,2.0,3.0,45,0.00,,,0.00,Wunderground v.1.15,2013-02-15 02:02:00,
2013-02-14 20:06:00,58.9,37.6,29.95,SE,140,2.0,3.0,45,0.00,,,0.00,Wunderground v.1.15,2013-02-15 02:06:00,
2013-02-14 20:07:00,58.9,37.6,29.95,SE,143,3.0,3.0,45,0.00,,,0.00,Wunderground v.1.15,2013-02-15 02:07:00,
2013-02-14 20:08:00,58.7,37.4,29.95,SE,143,3.0,3.0,45,0.00,,,0.00,Wunderground v.1.15,2013-02-15 02:08:00,
2013-02-14 20:12:00,58.7,37.4,29.95,SE,143,2.0,2.0,45,0.00,,,0.00,Wunderground v.1.15,2013-02-15 02:12:00,
2013-02-14 20:13:00,58.7,37.4,29.95,SE,143,2.0,2.0,45,0.00,,,0.00,Wunderground v.1.15,2013-02-15 02:13:00,
2013-02-14 20:14:00,58.7,37.4,29.95,SE,143,2.0,2.0,45,0.00,,,0.00,Wunderground v.1.15,2013-02-15 02:14:00,
2013-02-14 20:18:00,58.6,37.3,29.95,SE,141,1.0,2.0,45,0.00,,,0.00,Wunderground v.1.15,2013-02-15 02:18:00,
2013-02-14 20:19:00,58.6,37.3,29.95,SE,141,1.0,2.0,45,0.00,,,0.00,Wunderground v.1.15,2013-02-15 02:19:00,
2013-02-14 20:21:00,58.6,37.3,29.95,SE,141,1.0,2.0,45,0.00,,,0.00,Wunderground v.1.15,2013-02-15 02:21:00,
2013-02-14 20:23:00,58.6,37.3,29.95,SE,141,1.0,2.0,45,0.00,,,0.00,Wunderground v.1.15,2013-02-15 02:23:00,
2013-02-14 20:25:00,58.6,37.3,29.95,SE,141,1.0,2.0,45,0.00,,,0.00,Wunderground v.1.15,2013-02-15 02:25:00,
2013-02-14 20:26:00,58.6,37.3,29.95,SE,141,1.0,2.0,45,0.00,,,0.00,Wunderground v.1.15,2013-02-15 02:26:00,
2013-02-14 20:29:00,58.4,37.1,29.95,SE,141,1.0,2.0,45,0.00,,,0.00,Wunderground v.1.15,2013-02-15 02:29:00,
2013-02-14 20:31:00,58.4,36.6,29.95,SE,141,1.0,1.0,44,0.00,,,0.00,Wunderground v.1.15,2013-02-15 02:31:00,
2013-02-14 20:33:00,58.3,36.5,29.95,SE,141,2.0,2.0,44,0.00,,,0.00,Wunderground v.1.15,2013-02-15 02:33:00,
2013-02-14 20:36:00,58.3,37.0,29.95,SE,141,2.0,2.0,45,0.00,,,0.00,Wunderground v.1.15,2013-02-15 02:36:00,
2013-02-14 20:37:00,58.3,37.0,29.95,SE,141,1.0,2.0,45,0.00,,,0.00,Wunderground v.1.15,2013-02-15 02:37:00,
2013-02-14 20:39:00,58.1,36.9,29.95,SE,141,1.0,2.0,45,0.00,,,0.00,Wunderground v.1.15,2013-02-15 02:39:00,
2013-02-14 20:41:00,58.1,36.9,29.95,SE,141,1.0,1.0,45,0.00,,,0.00,Wunderground v.1.15,2013-02-15 02:41:00,
2013-02-14 20:43:00,58.0,36.8,29.95,SE,141,1.0,1.0,45,0.00,,,0.00,Wunderground v.1.15,2013-02-15 02:43:00,
2013-02-14 20:44:00,58.0,36.8,29.95,SE,141,1.0,2.0,45,0.00,,,0.00,Wunderground v.1.15,2013-02-15 02:44:00,
2013-02-14 20:48:00,57.6,36.4,29.95,SE,141,1.0,2.0,45,0.00,,,0.00,Wunderground v.1.15,2013-02-15 02:48:00,
2013-02-14 20:49:00,57.6,36.4,29.95,SE,141,1.0,2.0,45,0.00,,,0.00,Wunderground v.1.15,2013-02-15 02:49:00,
2013-02-14 20:50:00,57.5,36.3,29.95,SE,141,1.0,2.0,45,0.00,,,0.00,Wunderground v.1.15,2013-02-15 02:50:00,
2013-02-14 20:51:00,57.6,36.4,29.95,SE,141,1.0,1.0,45,0.00,,,0.00,Wunderground v.1.15,2013-02-15 02:51:00,
2013-02-14 20:54:00,57.5,36.3,29.95,SE,141,1.0,1.0,45,0.00,,,0.00,Wunderground v.1.15,2013-02-15 02:54:00,
2013-02-14 20:55:00,57.5,36.3,29.95,SE,141,1.0,1.0,45,0.00,,,0.00,Wunderground v.1.15,2013-02-15 02:55:00,
2013-02-14 20:56:00,57.5,36.3,29.95,SE,141,1.0,1.0,45,0.00,,,0.00,Wunderground v.1.15,2013-02-15 02:56:00,
2013-02-14 20:59:00,57.5,36.3,29.95,SE,141,1.0,1.0,45,0.00,,,0.00,Wunderground v.1.15,2013-02-15 02:59:00,
2013-02-14 21:01:00,57.5,36.3,29.96,SE,141,1.0,1.0,45,0.00,,,0.00,Wunderground v.1.15,2013-02-15 03:01:00,
2013-02-14 21:02:00,57.5,36.3,29.96,SE,141,1.0,1.0,45,0.00,,,0.00,Wunderground v.1.15,2013-02-15 03:02:00,
2013-02-14 21:04:00,57.3,36.1,29.96,SE,141,0.0,1.0,45,0.00,,,0.00,Wunderground v.1.15,2013-02-15 03:04:00,
2013-02-14 21:06:00,57.3,36.1,29.96,SE,141,0.0,1.0,45,0.00,,,0.00,Wunderground v.1.15,2013-02-15 03:06:00,
2013-02-14 21:07:00,57.3,36.1,29.96,SE,141,0.0,1.0,45,0.00,,,0.00,Wunderground v.1.15,2013-02-15 03:07:00,
2013-02-14 21:08:00,57.3,36.1,29.96,SE,141,0.0,1.0,45,0.00,,,0.00,Wunderground v.1.15,2013-02-15 03:08:00,
2013-02-14 21:12:00,57.2,36.0,29.96,SE,141,0.0,0.0,45,0.00,,,0.00,Wunderground v.1.15,2013-02-15 03:12:00,
2013-02-14 21:13:00,57.2,36.0,29.96,SE,141,0.0,0.0,45,0.00,,,0.00,Wunderground v.1.15,2013-02-15 03:13:00,
2013-02-14 21:14:00,57.0,35.9,29.96,SE,141,0.0,0.0,45,0.00,,,0.00,Wunderground v.1.15,2013-02-15 03:14:00,
2013-02-14 21:15:00,57.0,35.9,29.96,SE,141,0.0,0.0,45,0.00,,,0.00,Wunderground v.1.15,2013-02-15 03:15:00,
2013-02-14 21:18:00,56.9,36.3,29.96,SE,141,0.0,0.0,46,0.00,,,0.00,Wunderground v.1.15,2013-02-15 03:18:00,
2013-02-14 21:21:00,56.7,36.1,29.96,SE,141,0.0,0.0,46,0.00,,,0.00,Wunderground v.1.15,2013-02-15 03:21:00,
2013-02-14 21:22:00,56.6,36.0,29.96,SE,141,0.0,0.0,46,0.00,,,0.00,Wunderground v.1.15,2013-02-15 03:22:00,
2013-02-14 21:27:00,56.5,36.5,29.96,SE,141,1.0,2.0,47,0.00,,,0.00,Wunderground v.1.15,2013-02-15 03:27:00,
2013-02-14 21:28:00,56.5,36.5,29.96,SE,141,1.0,2.0,47,0.00,,,0.00,Wunderground v.1.15,2013-02-15 03:28:00,
2013-02-14 21:29:00,56.5,36.5,29.96,SE,141,1.0,2.0,47,0.00,,,0.00,Wunderground v.1.15,2013-02-15 03:29:00,
2013-02-14 21:33:00,56.3,36.3,29.96,SE,141,1.0,1.0,47,0.00,,,0.00,Wunderground v.1.15,2013-02-15 03:33:00,
2013-02-14 21:35:00,56.3,36.3,29.96,SE,141,1.0,1.0,47,0.00,,,0.00,Wunderground v.1.15,2013-02-15 03:35:00,
2013-02-14 21:37:00,56.3,36.3,29.96,SE,141,1.0,2.0,47,0.00,,,0.00,Wunderground v.1.15,2013-02-15 03:37:00,
2013-02-14 21:38:00,56.3,36.3,29.96,SE,141,1.0,2.0,47,0.00,,,0.00,Wunderground v.1.15,2013-02-15 03:38:00,
2013-02-14 21:41:00,56.2,36.8,29.96,SE,141,1.0,2.0,48,0.00,,,0.00,Wunderground v.1.15,2013-02-15 03:41:00,
2013-02-14 21:42:00,56.2,36.8,29.96,SE,141,1.0,2.0,48,0.00,,,0.00,Wunderground v.1.15,2013-02-15 03:42:00,
2013-02-14 21:43:00,56.0,36.6,29.96,SE,141,1.0,2.0,48,0.00,,,0.00,Wunderground v.1.15,2013-02-15 03:43:00,
2013-02-14 21:45:00,55.9,36.5,29.96,SE,141,1.0,3.0,48,0.00,,,0.00,Wunderground v.1.15,2013-02-15 03:45:00,
2013-02-14 21:48:00,55.9,36.5,29.97,SSE,155,2.0,10.0,48,0.00,,,0.00,Wunderground v.1.15,2013-02-15 03:48:00,
2013-02-14 21:51:00,56.0,37.1,29.97,SSE,151,4.0,11.0,49,0.00,,,0.00,Wunderground v.1.15,2013-02-15 03:51:00,
2013-02-14 21:52:00,56.2,37.3,29.97,SE,143,5.0,13.0,49,0.00,,,0.00,Wunderground v.1.15,2013-02-15 03:52:00,
2013-02-14 21:55:00,56.0,37.6,29.97,South,185,6.0,13.0,50,0.00,,,0.00,Wunderground v.1.15,2013-02-15 03:55:00,
2013-02-14 21:57:00,55.9,37.5,29.97,SSE,164,6.0,13.0,50,0.00,,,0.00,Wunderground v.1.15,2013-02-15 03:57:00,
2013-02-14 21:58:00,55.9,38.0,29.97,SSE,147,6.0,13.0,51,0.00,,,0.00,Wunderground v.1.15,2013-02-15 03:58:00,
2013-02-14 22:01:00,55.7,37.8,29.98,SSE,154,5.0,5.0,51,0.00,,,0.00,Wunderground v.1.15,2013-02-15 04:01:00,
2013-02-14 22:02:00,55.7,37.8,29.98,SSE,161,5.0,5.0,51,0.00,,,0.00,Wunderground v.1.15,2013-02-15 04:02:00,
2013-02-14 22:04:00,55.6,38.2,29.98,SE,144,5.0,6.0,52,0.00,,,0.00,Wunderground v.1.15,2013-02-15 04:04:00,
2013-02-14 22:06:00,55.6,38.2,29.98,SE,136,4.0,6.0,52,0.00,,,0.00,Wunderground v.1.15,2013-02-15 04:06:00,
2013-02-14 22:07:00,55.4,38.1,29.98,SSE,165,4.0,6.0,52,0.00,,,0.00,Wunderground v.1.15,2013-02-15 04:07:00,
2013-02-14 22:09:00,55.3,38.0,29.98,SE,137,4.0,6.0,52,0.00,,,0.00,Wunderground v.1.15,2013-02-15 04:09:00,
2013-02-14 22:12:00,55.1,38.3,29.98,SSE,164,4.0,5.0,53,0.00,,,0.00,Wunderground v.1.15,2013-02-15 04:12:00,
2013-02-14 22:13:00,55.1,38.3,29.98,SSE,164,3.0,5.0,53,0.00,,,0.00,Wunderground v.1.15,2013-02-15 04:13:00,
2013-02-14 22:15:00,55.1,38.3,29.98,SE,141,3.0,5.0,53,0.00,,,0.00,Wunderground v.1.15,2013-02-15 04:15:00,
2013-02-14 22:16:00,55.0,38.2,29.98,SE,144,3.0,5.0,53,0.00,,,0.00,Wunderground v.1.15,2013-02-15 04:16:00,
2013-02-14 22:17:00,55.0,38.2,29.98,South,181,3.0,5.0,53,0.00,,,0.00,Wunderground v.1.15,2013-02-15 04:17:00,
2013-02-14 22:18:00,55.0,38.6,29.98,SSE,161,3.0,6.0,54,0.00,,,0.00,Wunderground v.1.15,2013-02-15 04:18:00,
2013-02-14 22:21:00,54.8,38.5,29.98,South,172,3.0,6.0,54,0.00,,,0.00,Wunderground v.1.15,2013-02-15 04:21:00,
2013-02-14 22:23:00,54.7,38.8,29.98,South,172,3.0,6.0,55,0.00,,,0.00,Wunderground v.1.15,2013-02-15 04:23:00,
2013-02-14 22:24:00,54.7,38.8,29.98,South,172,3.0,6.0,55,0.00,,,0.00,Wunderground v.1.15,2013-02-15 04:24:00,
2013-02-14 22:25:00,54.5,38.7,29.98,South,172,3.0,6.0,55,0.00,,,0.00,Wunderground v.1.15,2013-02-15 04:25:00,
2013-02-14 22:29:00,54.4,38.6,29.98,SSE,155,2.0,6.0,55,0.00,,,0.00,Wunderground v.1.15,2013-02-15 04:29:00,
2013-02-14 22:31:00,54.2,38.4,29.98,SSE,155,2.0,2.0,55,0.00,,,0.00,Wunderground v.1.15,2013-02-15 04:31:00,
2013-02-14 22:32:00,54.2,38.4,29.98,SSE,155,2.0,2.0,55,0.00,,,0.00,Wunderground v.1.15,2013-02-15 04:32:00,
2013-02-14 22:34:00,54.1,38.7,29.98,SSE,167,2.0,6.0,56,0.00,,,0.00,Wunderground v.1.15,2013-02-15 04:34:00,
2013-02-14 22:39:00,53.9,38.6,29.98,SSE,167,2.0,6.0,56,0.00,,,0.00,Wunderground v.1.15,2013-02-15 04:39:00,
2013-02-14 22:41:00,53.8,38.5,29.98,South,171,2.0,2.0,56,0.00,,,0.00,Wunderground v.1.15,2013-02-15 04:41:00,
2013-02-14 22:44:00,53.6,38.3,29.98,SSE,168,2.0,2.0,56,0.00,,,0.00,Wunderground v.1.15,2013-02-15 04:44:00,
2013-02-14 22:46:00,53.6,38.3,29.99,South,169,2.0,2.0,56,0.00,,,0.00,Wunderground v.1.15,2013-02-15 04:46:00,
2013-02-14 22:49:00,53.5,38.2,29.99,SSE,168,2.0,2.0,56,0.00,,,0.00,Wunderground v.1.15,2013-02-15 04:49:00,
2013-02-14 22:51:00,53.3,38.0,29.99,SSE,168,1.0,2.0,56,0.00,,,0.00,Wunderground v.1.15,2013-02-15 04:51:00,
2013-02-14 22:52:00,53.3,38.0,29.99,SSE,168,2.0,3.0,56,0.00,,,0.00,Wunderground v.1.15,2013-02-15 04:52:00,
2013-02-14 22:55:00,53.2,37.9,29.99,SSE,168,1.0,3.0,56,0.00,,,0.00,Wunderground v.1.15,2013-02-15 04:55:00,
2013-02-14 22:57:00,53.1,38.3,29.99,SSE,168,1.0,3.0,57,0.00,,,0.00,Wunderground v.1.15,2013-02-15 04:57:00,
2013-02-14 22:58:00,52.9,38.1,29.99,SSE,168,1.0,3.0,57,0.00,,,0.00,Wunderground v.1.15,2013-02-15 04:58:00,
2013-02-14 23:01:00,52.8,38.0,29.99,SSE,168,1.0,1.0,57,0.00,,,0.00,Wunderground v.1.15,2013-02-15 05:01:00,
2013-02-14 23:03:00,52.8,38.0,29.99,SSE,168,1.0,1.0,57,0.00,,,0.00,Wunderground v.1.15,2013-02-15 05:03:00,
2013-02-14 23:04:00,52.8,38.0,29.99,SSE,168,1.0,1.0,57,0.00,,,0.00,Wunderground v.1.15,2013-02-15 05:04:00,
2013-02-14 23:08:00,52.5,37.7,29.99,SSE,168,1.0,2.0,57,0.00,,,0.00,Wunderground v.1.15,2013-02-15 05:08:00,
2013-02-14 23:09:00,52.5,38.1,29.99,SSE,168,0.0,2.0,58,0.00,,,0.00,Wunderground v.1.15,2013-02-15 05:09:00,
2013-02-14 23:11:00,52.5,38.1,29.99,SSE,168,1.0,1.0,58,0.00,,,0.00,Wunderground v.1.15,2013-02-15 05:11:00,
2013-02-14 23:13:00,52.3,38.0,29.99,South,169,1.0,1.0,58,0.00,,,0.00,Wunderground v.1.15,2013-02-15 05:13:00,
2013-02-14 23:15:00,52.2,37.9,29.99,South,169,1.0,1.0,58,0.00,,,0.00,Wunderground v.1.15,2013-02-15 05:15:00,
2013-02-14 23:16:00,52.2,37.9,29.98,South,169,1.0,1.0,58,0.00,,,0.00,Wunderground v.1.15,2013-02-15 05:16:00,
2013-02-14 23:18:00,52.0,37.7,29.98,South,169,1.0,2.0,58,0.00,,,0.00,Wunderground v.1.15,2013-02-15 05:18:00,
2013-02-14 23:19:00,52.0,37.7,29.98,South,184,1.0,3.0,58,0.00,,,0.00,Wunderground v.1.15,2013-02-15 05:19:00,
2013-02-14 23:21:00,51.9,37.6,29.98,South,184,2.0,2.0,58,0.00,,,0.00,Wunderground v.1.15,2013-02-15 05:21:00,
2013-02-14 23:24:00,51.7,37.4,29.98,South,184,1.0,2.0,58,0.00,,,0.00,Wunderground v.1.15,2013-02-15 05:24:00,
2013-02-14 23:25:00,51.7,37.4,29.98,South,184,1.0,2.0,58,0.00,,,0.00,Wunderground v.1.15,2013-02-15 05:25:00,
2013-02-14 23:26:00,51.7,37.4,29.98,South,184,2.0,2.0,58,0.00,,,0.00,Wunderground v.1.15,2013-02-15 05:26:00,
2013-02-14 23:31:00,51.4,37.1,29.99,South,184,1.0,1.0,58,0.00,,,0.00,Wunderground v.1.15,2013-02-15 05:31:00,
2013-02-14 23:32:00,51.3,37.0,29.99,South,184,1.0,1.0,58,0.00,,,0.00,Wunderground v.1.15,2013-02-15 05:32:00,
2013-02-14 23:33:00,51.3,37.0,29.99,South,184,1.0,1.0,58,0.00,,,0.00,Wunderground v.1.15,2013-02-15 05:33:00,
2013-02-14 23:34:00,51.3,37.0,29.99,South,184,1.0,1.0,58,0.00,,,0.00,Wunderground v.1.15,2013-02-15 05:34:00,
2013-02-14 23:36:00,51.1,36.8,29.99,South,184,0.0,1.0,58,0.00,,,0.00,Wunderground v.1.15,2013-02-15 05:36:00,
2013-02-14 23:38:00,51.1,37.3,29.99,South,184,0.0,1.0,59,0.00,,,0.00,Wunderground v.1.15,2013-02-15 05:38:00,
2013-02-14 23:39:00,51.0,37.2,29.99,South,184,0.0,1.0,59,0.00,,,0.00,Wunderground v.1.15,2013-02-15 05:39:00,
2013-02-14 23:41:00,51.0,37.2,29.99,South,184,0.0,0.0,59,0.00,,,0.00,Wunderground v.1.15,2013-02-15 05:41:00,
2013-02-14 23:45:00,50.7,36.9,29.99,South,184,0.0,0.0,59,0.00,,,0.00,Wunderground v.1.15,2013-02-15 05:45:00,
2013-02-14 23:46:00,50.7,36.9,30.00,South,184,0.0,0.0,59,0.00,,,0.00,Wunderground v.1.15,2013-02-15 05:46:00,
2013-02-14 23:48:00,50.5,37.1,30.00,South,184,0.0,0.0,60,0.00,,,0.00,Wunderground v.1.15,2013-02-15 05:48:00,
2013-02-14 23:51:00,50.4,37.0,30.00,South,184,0.0,0.0,60,0.00,,,0.00,Wunderground v.1.15,2013-02-15 05:51:00,
2013-02-14 23:52:00,50.4,37.0,30.00,South,184,0.0,0.0,60,0.00,,,0.00,Wunderground v.1.15,2013-02-15 05:52:00,
2013-02-14 23:54:00,50.2,36.8,30.00,South,184,0.0,0.0,60,0.00,,,0.00,Wunderground v.1.15,2013-02-15 05:54:00,
2013-02-14 23:57:00,50.1,37.2,30.00,South,184,0.0,0.0,61,0.00,,,0.00,Wunderground v.1.15,2013-02-15 05:57:00,
2013-02-14 23:59:00,50.1,37.2,30.00,South,184,0.0,2.0,61,0.00,,,0.00,Wunderground v.1.15,2013-02-15 05:59:00,